Time,TemperatureF,DewpointF,PressureIn,WindDirection,WindDirectionDegrees,WindSpeedMPH,WindSpeedGustMPH,Humidity,HourlyPrecipIn,Conditions,Clouds,dailyrainin,SolarRadiationWatts/m^2,SoftwareType,DateUTC
2013-02-26 00:00:00,77.4,74.2,29.83,SE,133,8.0,13.0,90,0.00,,FEW,0.00,0.00,VWS V14.01,2013-02-26 05:00:00,
2013-02-26 00:05:00,77.5,74.3,29.83,ESE,117,7.0,12.0,90,0.00,,FEW,0.00,0.00,VWS V14.01,2013-02-26 05:05:00,
2013-02-26 00:10:00,77.4,74.2,29.83,SSE,159,7.0,13.0,90,0.00,,FEW,0.00,0.00,VWS V14.01,2013-02-26 05:10:00,
2013-02-26 00:15:00,77.5,74.3,29.83,SE,137,7.0,12.0,90,0.00,,FEW,0.00,0.00,VWS V14.01,2013-02-26 05:15:00,
2013-02-26 00:20:00,77.5,74.3,29.83,SSE,150,7.0,14.0,90,0.00,,FEW,0.00,0.00,VWS V14.01,2013-02-26 05:20:00,
2013-02-26 00:25:00,77.6,74.4,29.83,SE,133,6.0,15.0,90,0.00,,FEW,0.00,0.00,VWS V14.01,2013-02-26 05:25:00,
2013-02-26 00:30:00,77.6,74.4,29.83,SE,124,7.0,15.0,90,0.00,,FEW,0.00,0.00,VWS V14.01,2013-02-26 05:30:00,
2013-02-26 00:35:00,77.6,74.4,29.83,SE,143,7.0,12.0,90,0.00,,FEW,0.00,0.00,VWS V14.01,2013-02-26 05:35:00,
2013-02-26 00:36:00,77.6,74.4,29.83,ESE,115,9.0,12.0,90,0.00,,FEW,0.00,0.00,VWS V14.01,2013-02-26 05:36:00,
2013-02-26 00:40:00,77.6,74.4,29.83,SSE,162,9.0,12.0,90,0.00,,FEW,0.00,0.00,VWS V14.01,2013-02-26 05:40:00,
2013-02-26 00:41:00,77.7,74.5,29.83,SSE,161,7.0,12.0,90,0.00,,FEW,0.00,0.00,VWS V14.01,2013-02-26 05:41:00,
2013-02-26 00:45:00,77.7,74.5,29.83,SE,140,6.0,11.0,90,0.00,,FEW,0.00,0.00,VWS V14.01,2013-02-26 05:45:00,
2013-02-26 00:46:00,77.7,74.5,29.83,SSE,151,10.0,11.0,90,0.00,,FEW,0.00,0.00,VWS V14.01,2013-02-26 05:46:00,
2013-02-26 00:50:00,77.7,74.2,29.83,SE,126,4.0,11.0,89,0.00,,FEW,0.00,0.00,VWS V14.01,2013-02-26 05:50:00,
2013-02-26 00:51:00,77.7,74.2,29.83,SE,136,2.0,11.0,89,0.00,,FEW,0.00,0.00,VWS V14.01,2013-02-26 05:51:00,
2013-02-26 00:56:00,77.7,74.2,29.83,SSE,148,4.0,8.0,89,0.00,,FEW,0.00,0.00,VWS V14.01,2013-02-26 05:56:00,
2013-02-26 01:01:00,77.8,74.3,29.83,SSE,154,3.0,8.0,89,0.00,,FEW,0.00,0.00,VWS V14.01,2013-02-26 06:01:00,
2013-02-26 01:02:00,77.8,74.3,29.83,SE,124,7.0,7.0,89,0.00,,FEW,0.00,0.00,VWS V14.01,2013-02-26 06:02:00,
2013-02-26 01:06:00,77.9,74.1,29.83,SE,140,4.0,8.0,88,0.00,,FEW,0.00,0.00,VWS V14.01,2013-02-26 06:06:00,
2013-02-26 01:07:00,77.9,74.1,29.83,SE,124,5.0,8.0,88,0.00,,FEW,0.00,0.00,VWS V14.01,2013-02-26 06:07:00,
2013-02-26 01:11:00,78.0,74.2,29.83,SSE,162,4.0,8.0,88,0.00,,FEW,0.00,0.00,VWS V14.01,2013-02-26 06:11:00,
2013-02-26 01:12:00,78.0,74.2,29.83,SE,140,6.0,6.0,88,0.00,,FEW,0.00,0.00,VWS V14.01,2013-02-26 06:12:00,
2013-02-26 01:16:00,78.1,74.3,29.83,South,174,6.0,8.0,88,0.00,,FEW,0.00,0.00,VWS V14.01,2013-02-26 06:16:00,
2013-02-26 01:17:00,78.1,74.3,29.83,South,180,4.0,8.0,88,0.00,,FEW,0.00,0.00,VWS V14.01,2013-02-26 06:17:00,
2013-02-26 01:21:00,78.2,74.4,29.83,ESE,116,3.0,10.0,88,0.00,,FEW,0.00,0.00,VWS V14.01,2013-02-26 06:21:00,
2013-02-26 01:22:00,78.2,74.4,29.83,South,173,5.0,8.0,88,0.00,,FEW,0.00,0.00,VWS V14.01,2013-02-26 06:22:00,
2013-02-26 01:26:00,78.3,74.5,29.83,SSE,150,8.0,9.0,88,0.00,,FEW,0.00,0.00,VWS V14.01,2013-02-26 06:26:00,
2013-02-26 01:27:00,78.3,74.5,29.83,SSE,147,4.0,9.0,88,0.00,,FEW,0.00,0.00,VWS V14.01,2013-02-26 06:27:00,
2013-02-26 01:31:00,78.4,74.6,29.83,SSW,205,3.0,9.0,88,0.00,,FEW,0.00,0.00,VWS V14.01,2013-02-26 06:31:00,
2013-02-26 01:32:00,78.4,74.6,29.83,SSE,150,5.0,7.0,88,0.00,,FEW,0.00,0.00,VWS V14.01,2013-02-26 06:32:00,
2013-02-26 01:36:00,78.4,74.9,29.83,South,178,3.0,11.0,89,0.00,,FEW,0.00,0.00,VWS V14.01,2013-02-26 06:36:00,
2013-02-26 01:37:00,78.4,74.9,29.83,SE,144,3.0,11.0,89,0.00,,FEW,0.00,0.00,VWS V14.01,2013-02-26 06:37:00,
2013-02-26 01:41:00,78.4,74.9,29.83,South,173,4.0,11.0,89,0.00,,FEW,0.00,0.00,VWS V14.01,2013-02-26 06:41:00,
2013-02-26 01:42:00,78.4,74.9,29.83,SSE,158,3.0,5.0,89,0.00,,FEW,0.00,0.00,VWS V14.01,2013-02-26 06:42:00,
2013-02-26 01:46:00,78.4,74.9,29.82,SSE,154,10.0,10.0,89,0.00,,FEW,0.00,0.00,VWS V14.01,2013-02-26 06:46:00,
2013-02-26 01:47:00,78.4,74.9,29.82,South,171,2.0,10.0,89,0.00,,FEW,0.00,0.00,VWS V14.01,2013-02-26 06:47:00,
2013-02-26 01:48:00,78.4,74.9,29.82,SSE,155,4.0,10.0,89,0.00,,FEW,0.00,0.00,VWS V14.01,2013-02-26 06:48:00,
2013-02-26 01:51:00,78.3,74.8,29.82,SE,140,2.0,3.0,89,0.00,,FEW,0.00,0.00,VWS V14.01,2013-02-26 06:51:00,
2013-02-26 01:52:00,78.3,74.8,29.82,SSE,155,5.0,5.0,89,0.00,,FEW,0.00,0.00,VWS V14.01,2013-02-26 06:52:00,
2013-02-26 01:53:00,78.3,74.8,29.82,SSE,148,6.0,6.0,89,0.00,,FEW,0.00,0.00,VWS V14.01,2013-02-26 06:53:00,
2013-02-26 01:57:00,78.2,74.7,29.82,SSE,152,7.0,8.0,89,0.00,,FEW,0.00,0.00,VWS V14.01,2013-02-26 06:57:00,
2013-02-26 01:58:00,78.2,74.7,29.82,SSE,160,4.0,9.0,89,0.00,,FEW,0.00,0.00,VWS V14.01,2013-02-26 06:58:00,
2013-02-26 02:02:00,78.2,75.0,29.82,SSE,168,9.0,9.0,90,0.00,,FEW,0.00,0.00,VWS V14.01,2013-02-26 07:02:00,
2013-02-26 02:03:00,78.2,75.0,29.82,South,190,3.0,9.0,90,0.00,,FEW,0.00,0.00,VWS V14.01,2013-02-26 07:03:00,
2013-02-26 02:07:00,78.1,74.9,29.82,SSW,203,5.0,9.0,90,0.00,,FEW,0.00,0.00,VWS V14.01,2013-02-26 07:07:00,
2013-02-26 02:08:00,78.1,74.9,29.82,SSW,207,3.0,9.0,90,0.00,,FEW,0.00,0.00,VWS V14.01,2013-02-26 07:08:00,
2013-02-26 02:12:00,78.1,74.9,29.82,SSW,198,7.0,7.0,90,0.00,,FEW,0.00,0.00,VWS V14.01,2013-02-26 07:12:00,
2013-02-26 02:13:00,78.1,74.9,29.82,SE,136,8.0,8.0,90,0.00,,FEW,0.00,0.00,VWS V14.01,2013-02-26 07:13:00,
2013-02-26 02:14:00,78.1,74.9,29.82,SSE,162,5.0,8.0,90,0.00,,FEW,0.00,0.00,VWS V14.01,2013-02-26 07:14:00,
2013-02-26 02:17:00,78.0,74.5,29.82,SSE,162,4.0,8.0,89,0.00,,FEW,0.00,0.00,VWS V14.01,2013-02-26 07:17:00,
2013-02-26 02:18:00,77.9,74.4,29.82,SSW,205,6.0,8.0,89,0.00,,FEW,0.00,0.00,VWS V14.01,2013-02-26 07:18:00,
2013-02-26 02:19:00,77.9,74.4,29.82,South,176,2.0,8.0,89,0.00,,FEW,0.00,0.00,VWS V14.01,2013-02-26 07:19:00,
2013-02-26 02:22:00,77.9,74.7,29.82,South,172,4.0,4.0,90,0.00,,FEW,0.00,0.00,VWS V14.01,2013-02-26 07:22:00,
2013-02-26 02:23:00,77.9,74.7,29.82,South,172,4.0,6.0,90,0.00,,FEW,0.00,0.00,VWS V14.01,2013-02-26 07:23:00,
2013-02-26 02:24:00,77.9,74.7,29.82,South,188,4.0,6.0,90,0.00,,FEW,0.00,0.00,VWS V14.01,2013-02-26 07:24:00,
2013-02-26 02:27:00,77.9,74.7,29.82,SSW,193,4.0,8.0,90,0.00,,FEW,0.00,0.00,VWS V14.01,2013-02-26 07:27:00,
2013-02-26 02:28:00,77.9,74.7,29.82,ESE,117,7.0,8.0,90,0.00,,FEW,0.00,0.00,VWS V14.01,2013-02-26 07:28:00,
2013-02-26 02:29:00,77.8,74.3,29.82,SSW,192,3.0,8.0,89,0.00,,FEW,0.00,0.00,VWS V14.01,2013-02-26 07:29:00,
2013-02-26 02:32:00,77.6,74.1,29.81,SSE,166,3.0,5.0,89,0.00,,FEW,0.00,0.00,VWS V14.01,2013-02-26 07:32:00,
2013-02-26 02:33:00,77.5,73.7,29.81,South,182,3.0,8.0,88,0.00,,FEW,0.00,0.00,VWS V14.01,2013-02-26 07:33:00,
2013-02-26 02:34:00,77.4,73.6,29.81,SSW,212,4.0,8.0,88,0.00,,FEW,0.00,0.00,VWS V14.01,2013-02-26 07:34:00,
2013-02-26 02:37:00,77.3,73.5,29.81,SE,126,5.0,8.0,88,0.00,,FEW,0.00,0.00,VWS V14.01,2013-02-26 07:37:00,
2013-02-26 02:39:00,77.3,73.5,29.81,WSW,239,7.0,9.0,88,0.00,,FEW,0.00,0.00,VWS V14.01,2013-02-26 07:39:00,
2013-02-26 02:40:00,77.3,73.5,29.81,SSE,162,4.0,10.0,88,0.00,,FEW,0.00,0.00,VWS V14.01,2013-02-26 07:40:00,
2013-02-26 02:42:00,77.4,73.6,29.81,South,189,5.0,12.0,88,0.00,,FEW,0.00,0.00,VWS V14.01,2013-02-26 07:42:00,
2013-02-26 02:43:00,77.4,73.6,29.81,South,189,8.0,12.0,88,0.00,,FEW,0.00,0.00,VWS V14.01,2013-02-26 07:43:00,
2013-02-26 02:44:00,77.4,73.6,29.81,South,170,4.0,12.0,88,0.00,,FEW,0.00,0.00,VWS V14.01,2013-02-26 07:44:00,
2013-02-26 02:45:00,77.4,73.6,29.81,East,96,3.0,12.0,88,0.00,,FEW,0.00,0.00,VWS V14.01,2013-02-26 07:45:00,
2013-02-26 02:47:00,77.5,73.3,29.80,SE,146,5.0,12.0,87,0.00,,FEW,0.00,0.00,VWS V14.01,2013-02-26 07:47:00,
2013-02-26 02:48:00,77.5,73.3,29.80,ESE,103,3.0,12.0,87,0.00,,FEW,0.00,0.00,VWS V14.01,2013-02-26 07:48:00,
2013-02-26 02:49:00,77.5,73.3,29.80,South,188,6.0,12.0,87,0.00,,FEW,0.00,0.00,VWS V14.01,2013-02-26 07:49:00,
2013-02-26 02:50:00,77.5,73.7,29.80,South,190,5.0,12.0,88,0.00,,FEW,0.00,0.00,VWS V14.01,2013-02-26 07:50:00,
2013-02-26 02:52:00,77.6,73.8,29.80,SW,219,8.0,8.0,88,0.00,,FEW,0.00,0.00,VWS V14.01,2013-02-26 07:52:00,
2013-02-26 02:53:00,77.7,73.9,29.80,SSW,203,4.0,8.0,88,0.00,,FEW,0.00,0.00,VWS V14.01,2013-02-26 07:53:00,
2013-02-26 02:54:00,77.7,73.9,29.80,South,184,5.0,11.0,88,0.00,,FEW,0.00,0.00,VWS V14.01,2013-02-26 07:54:00,
2013-02-26 02:55:00,77.7,73.9,29.80,South,188,5.0,11.0,88,0.00,,FEW,0.00,0.00,VWS V14.01,2013-02-26 07:55:00,
2013-02-26 02:58:00,77.7,73.9,29.80,SSE,152,3.0,11.0,88,0.00,,FEW,0.00,0.00,VWS V14.01,2013-02-26 07:58:00,
2013-02-26 02:59:00,77.6,73.8,29.80,South,188,5.0,11.0,88,0.00,,FEW,0.00,0.00,VWS V14.01,2013-02-26 07:59:00,
2013-02-26 03:00:00,77.6,73.8,29.80,SSE,158,7.0,11.0,88,0.00,,FEW,0.00,0.00,VWS V14.01,2013-02-26 08:00:00,
2013-02-26 03:03:00,77.6,73.8,29.80,SSW,199,4.0,9.0,88,0.00,,FEW,0.00,0.00,VWS V14.01,2013-02-26 08:03:00,
2013-02-26 03:04:00,77.6,73.8,29.80,SE,140,5.0,9.0,88,0.00,,FEW,0.00,0.00,VWS V14.01,2013-02-26 08:04:00,
2013-02-26 03:05:00,77.6,73.8,29.80,SSE,148,6.0,9.0,88,0.00,,FEW,0.00,0.00,VWS V14.01,2013-02-26 08:05:00,
2013-02-26 03:08:00,77.6,74.1,29.80,SSE,153,6.0,9.0,89,0.00,,FEW,0.00,0.00,VWS V14.01,2013-02-26 08:08:00,
2013-02-26 03:09:00,77.6,74.1,29.80,SSE,148,4.0,9.0,89,0.00,,FEW,0.00,0.00,VWS V14.01,2013-02-26 08:09:00,
2013-02-26 03:10:00,77.6,74.1,29.80,SE,126,6.0,9.0,89,0.00,,FEW,0.00,0.00,VWS V14.01,2013-02-26 08:10:00,
2013-02-26 03:13:00,77.6,74.1,29.80,South,172,8.0,8.0,89,0.00,,FEW,0.00,0.00,VWS V14.01,2013-02-26 08:13:00,
2013-02-26 03:15:00,77.6,74.1,29.80,South,176,4.0,8.0,89,0.00,,FEW,0.00,0.00,VWS V14.01,2013-02-26 08:15:00,
2013-02-26 03:18:00,77.6,74.1,29.79,ESE,118,5.0,10.0,89,0.00,,FEW,0.00,0.00,VWS V14.01,2013-02-26 08:18:00,
2013-02-26 03:20:00,77.5,74.0,29.79,SE,144,2.0,11.0,89,0.00,,FEW,0.00,0.00,VWS V14.01,2013-02-26 08:20:00,
2013-02-26 03:23:00,77.5,74.0,29.79,South,177,7.0,7.0,89,0.00,,FEW,0.00,0.00,VWS V14.01,2013-02-26 08:23:00,
2013-02-26 03:24:00,77.5,74.0,29.79,SSW,202,5.0,7.0,89,0.00,,FEW,0.00,0.00,VWS V14.01,2013-02-26 08:24:00,
2013-02-26 03:25:00,77.4,73.9,29.79,South,186,5.0,7.0,89,0.00,,FEW,0.00,0.00,VWS V14.01,2013-02-26 08:25:00,
2013-02-26 03:28:00,77.4,73.9,29.79,SSW,212,5.0,7.0,89,0.00,,FEW,0.00,0.00,VWS V14.01,2013-02-26 08:28:00,
2013-02-26 03:29:00,77.4,73.9,29.79,SSW,194,4.0,7.0,89,0.00,,FEW,0.00,0.00,VWS V14.01,2013-02-26 08:29:00,
2013-02-26 03:30:00,77.3,73.8,29.79,SSW,207,5.0,8.0,89,0.00,,FEW,0.00,0.00,VWS V14.01,2013-02-26 08:30:00,
2013-02-26 03:31:00,77.3,73.8,29.79,SSW,205,5.0,8.0,89,0.00,,FEW,0.00,0.00,VWS V14.01,2013-02-26 08:31:00,
2013-02-26 03:33:00,77.3,73.8,29.79,SSE,162,6.0,8.0,89,0.00,,FEW,0.00,0.00,VWS V14.01,2013-02-26 08:33:00,
2013-02-26 03:34:00,77.3,73.8,29.79,SE,138,3.0,8.0,89,0.00,,FEW,0.00,0.00,VWS V14.01,2013-02-26 08:34:00,
2013-02-26 03:35:00,77.2,73.7,29.79,South,173,4.0,9.0,89,0.00,,FEW,0.00,0.00,VWS V14.01,2013-02-26 08:35:00,
2013-02-26 03:36:00,77.2,73.7,29.79,South,188,3.0,9.0,89,0.00,,FEW,0.00,0.00,VWS V14.01,2013-02-26 08:36:00,
2013-02-26 03:39:00,77.2,73.7,29.79,South,182,7.0,9.0,89,0.00,,FEW,0.00,0.00,VWS V14.01,2013-02-26 08:39:00,
2013-02-26 03:40:00,77.2,73.7,29.79,SSE,153,2.0,9.0,89,0.00,,FEW,0.00,0.00,VWS V14.01,2013-02-26 08:40:00,
2013-02-26 03:42:00,77.2,73.7,29.79,SSE,159,4.0,5.0,89,0.00,,FEW,0.00,0.00,VWS V14.01,2013-02-26 08:42:00,
2013-02-26 03:44:00,77.1,73.6,29.79,South,182,8.0,8.0,89,0.00,,FEW,0.00,0.00,VWS V14.01,2013-02-26 08:44:00,
2013-02-26 03:45:00,77.1,73.6,29.79,SSW,207,5.0,8.0,89,0.00,,FEW,0.00,0.00,VWS V14.01,2013-02-26 08:45:00,
2013-02-26 03:47:00,77.1,73.6,29.79,South,174,4.0,8.0,89,0.00,,FEW,0.00,0.00,VWS V14.01,2013-02-26 08:47:00,
2013-02-26 03:49:00,77.2,73.7,29.79,South,172,5.0,8.0,89,0.00,,FEW,0.00,0.00,VWS V14.01,2013-02-26 08:49:00,
2013-02-26 03:51:00,77.2,73.7,29.79,SSE,165,4.0,8.0,89,0.00,,FEW,0.00,0.00,VWS V14.01,2013-02-26 08:51:00,
2013-02-26 03:52:00,77.2,73.7,29.79,SSE,166,5.0,6.0,89,0.00,,FEW,0.00,0.00,VWS V14.01,2013-02-26 08:52:00,
2013-02-26 03:54:00,77.1,73.6,29.79,SSW,198,4.0,6.0,89,0.00,,FEW,0.00,0.00,VWS V14.01,2013-02-26 08:54:00,
2013-02-26 03:56:00,77.1,73.6,29.79,South,185,6.0,7.0,89,0.00,,FEW,0.00,0.00,VWS V14.01,2013-02-26 08:56:00,
2013-02-26 03:57:00,77.1,73.6,29.79,South,173,7.0,7.0,89,0.00,,FEW,0.00,0.00,VWS V14.01,2013-02-26 08:57:00,
2013-02-26 03:59:00,77.1,73.6,29.79,South,177,7.0,7.0,89,0.00,,FEW,0.00,0.00,VWS V14.01,2013-02-26 08:59:00,
2013-02-26 04:00:00,77.1,73.6,29.79,SW,224,2.0,7.0,89,0.00,,FEW,0.00,0.00,VWS V14.01,2013-02-26 09:00:00,
2013-02-26 04:01:00,77.1,73.6,29.79,SSW,193,7.0,8.0,89,0.00,,FEW,0.00,0.00,VWS V14.01,2013-02-26 09:01:00,
2013-02-26 04:02:00,77.0,73.5,29.79,South,174,6.0,7.0,89,0.00,,FEW,0.00,0.00,VWS V14.01,2013-02-26 09:02:00,
2013-02-26 04:04:00,77.0,73.5,29.79,SSW,207,5.0,7.0,89,0.00,,FEW,0.00,0.00,VWS V14.01,2013-02-26 09:04:00,
2013-02-26 04:05:00,77.1,73.6,29.79,SSW,211,7.0,8.0,89,0.00,,FEW,0.00,0.00,VWS V14.01,2013-02-26 09:05:00,
2013-02-26 04:06:00,77.0,73.5,29.79,SSW,202,7.0,9.0,89,0.00,,FEW,0.00,0.00,VWS V14.01,2013-02-26 09:06:00,
2013-02-26 04:07:00,77.1,73.6,29.79,SSE,163,4.0,9.0,89,0.00,,FEW,0.00,0.00,VWS V14.01,2013-02-26 09:07:00,
2013-02-26 04:09:00,77.1,73.9,29.79,SSE,148,6.0,9.0,90,0.00,,FEW,0.00,0.00,VWS V14.01,2013-02-26 09:09:00,
2013-02-26 04:10:00,77.1,73.6,29.79,SSE,147,3.0,9.0,89,0.00,,FEW,0.00,0.00,VWS V14.01,2013-02-26 09:10:00,
2013-02-26 04:11:00,77.1,73.6,29.79,SSE,158,7.0,9.0,89,0.00,,FEW,0.00,0.00,VWS V14.01,2013-02-26 09:11:00,
2013-02-26 04:13:00,77.1,73.9,29.79,South,188,4.0,7.0,90,0.00,,FEW,0.00,0.00,VWS V14.01,2013-02-26 09:13:00,
2013-02-26 04:14:00,77.1,73.9,29.79,SSE,150,6.0,7.0,90,0.00,,FEW,0.00,0.00,VWS V14.01,2013-02-26 09:14:00,
2013-02-26 04:15:00,77.2,74.0,29.79,SSW,194,8.0,9.0,90,0.00,,FEW,0.00,0.00,VWS V14.01,2013-02-26 09:15:00,
2013-02-26 04:16:00,77.2,74.0,29.80,South,181,8.0,9.0,90,0.00,,FEW,0.00,0.00,VWS V14.01,2013-02-26 09:16:00,
2013-02-26 04:18:00,77.2,74.0,29.80,SSW,203,7.0,10.0,90,0.00,,FEW,0.00,0.00,VWS V14.01,2013-02-26 09:18:00,
2013-02-26 04:19:00,77.1,73.9,29.80,South,176,6.0,10.0,90,0.00,,FEW,0.00,0.00,VWS V14.01,2013-02-26 09:19:00,
2013-02-26 04:20:00,77.1,73.9,29.80,SSW,194,3.0,10.0,90,0.00,,FEW,0.00,0.00,VWS V14.01,2013-02-26 09:20:00,
2013-02-26 04:21:00,77.1,73.9,29.80,SW,217,13.0,13.0,90,0.00,,FEW,0.00,0.00,VWS V14.01,2013-02-26 09:21:00,
2013-02-26 04:23:00,77.0,73.5,29.80,SSW,206,8.0,11.0,89,0.00,,FEW,0.00,0.00,VWS V14.01,2013-02-26 09:23:00,
2013-02-26 04:24:00,77.0,73.5,29.80,SW,219,2.0,11.0,89,0.00,,FEW,0.00,0.00,VWS V14.01,2013-02-26 09:24:00,
2013-02-26 04:25:00,77.1,73.6,29.80,SW,229,11.0,11.0,89,0.00,,FEW,0.00,0.00,VWS V14.01,2013-02-26 09:25:00,
2013-02-26 04:26:00,77.0,73.5,29.80,SSW,198,11.0,11.0,89,0.00,,FEW,0.00,0.00,VWS V14.01,2013-02-26 09:26:00,
2013-02-26 04:28:00,77.0,73.5,29.80,South,177,7.0,11.0,89,0.00,,FEW,0.00,0.00,VWS V14.01,2013-02-26 09:28:00,
2013-02-26 04:29:00,77.0,73.5,29.80,SSW,213,4.0,11.0,89,0.00,,FEW,0.00,0.00,VWS V14.01,2013-02-26 09:29:00,
2013-02-26 04:30:00,77.0,73.5,29.80,South,186,10.0,11.0,89,0.00,,FEW,0.00,0.00,VWS V14.01,2013-02-26 09:30:00,
2013-02-26 04:31:00,77.0,73.5,29.79,SSW,207,6.0,12.0,89,0.00,,FEW,0.00,0.00,VWS V14.01,2013-02-26 09:31:00,
2013-02-26 04:33:00,77.0,73.5,29.79,South,171,8.0,12.0,89,0.00,,FEW,0.00,0.00,VWS V14.01,2013-02-26 09:33:00,
2013-02-26 04:34:00,77.0,73.5,29.79,South,184,12.0,12.0,89,0.00,,FEW,0.00,0.00,VWS V14.01,2013-02-26 09:34:00,
2013-02-26 04:35:00,77.0,73.5,29.79,South,189,6.0,12.0,89,0.00,,FEW,0.00,0.00,VWS V14.01,2013-02-26 09:35:00,
2013-02-26 04:36:00,77.0,73.5,29.79,South,177,5.0,12.0,89,0.00,,FEW,0.00,0.00,VWS V14.01,2013-02-26 09:36:00,
2013-02-26 04:39:00,77.0,73.5,29.79,SSE,165,7.0,14.0,89,0.00,,FEW,0.00,0.00,VWS V14.01,2013-02-26 09:39:00,
2013-02-26 04:40:00,77.0,73.5,29.79,SSE,163,8.0,14.0,89,0.00,,FEW,0.00,0.00,VWS V14.01,2013-02-26 09:40:00,
2013-02-26 04:41:00,77.0,73.5,29.79,South,169,4.0,9.0,89,0.00,,FEW,0.00,0.00,VWS V14.01,2013-02-26 09:41:00,
2013-02-26 04:44:00,77.0,73.2,29.79,SE,136,5.0,10.0,88,0.00,,FEW,0.00,0.00,VWS V14.01,2013-02-26 09:44:00,
2013-02-26 04:45:00,77.0,73.2,29.79,SSW,194,6.0,10.0,88,0.00,,FEW,0.00,0.00,VWS V14.01,2013-02-26 09:45:00,
2013-02-26 04:46:00,77.0,73.2,29.79,SW,223,10.0,14.0,88,0.00,,FEW,0.00,0.00,VWS V14.01,2013-02-26 09:46:00,
2013-02-26 04:49:00,76.9,73.1,29.79,SSW,200,7.0,14.0,88,0.00,,FEW,0.00,0.00,VWS V14.01,2013-02-26 09:49:00,
2013-02-26 04:50:00,76.9,73.1,29.79,SSE,165,5.0,14.0,88,0.00,,FEW,0.00,0.00,VWS V14.01,2013-02-26 09:50:00,
2013-02-26 04:52:00,76.9,73.1,29.79,SSW,198,10.0,12.0,88,0.00,,FEW,0.00,0.00,VWS V14.01,2013-02-26 09:52:00,
2013-02-26 04:54:00,76.9,73.1,29.79,SSW,201,6.0,12.0,88,0.00,,FEW,0.00,0.00,VWS V14.01,2013-02-26 09:54:00,
2013-02-26 04:55:00,76.9,73.1,29.79,SW,214,9.0,12.0,88,0.00,,FEW,0.00,0.00,VWS V14.01,2013-02-26 09:55:00,
2013-02-26 04:57:00,77.0,73.2,29.79,South,182,7.0,12.0,88,0.00,,FEW,0.00,0.00,VWS V14.01,2013-02-26 09:57:00,
2013-02-26 04:59:00,77.0,72.8,29.79,South,184,15.0,15.0,87,0.00,,FEW,0.00,0.00,VWS V14.01,2013-02-26 09:59:00,
2013-02-26 05:00:00,77.0,72.8,29.79,South,178,7.0,15.0,87,0.00,,FEW,0.00,0.00,VWS V14.01,2013-02-26 10:00:00,
2013-02-26 05:02:00,77.1,73.3,29.79,SW,221,10.0,10.0,88,0.00,,FEW,0.00,0.00,VWS V14.01,2013-02-26 10:02:00,
2013-02-26 05:04:00,77.1,73.3,29.79,South,188,8.0,11.0,88,0.00,,FEW,0.00,0.00,VWS V14.01,2013-02-26 10:04:00,
2013-02-26 05:05:00,77.1,73.3,29.79,SSE,163,7.0,11.0,88,0.00,,FEW,0.00,0.00,VWS V14.01,2013-02-26 10:05:00,
2013-02-26 05:06:00,77.2,73.4,29.79,South,186,12.0,12.0,88,0.00,,FEW,0.00,0.00,VWS V14.01,2013-02-26 10:06:00,
2013-02-26 05:07:00,77.1,72.9,29.79,South,173,12.0,12.0,87,0.00,,FEW,0.00,0.00,VWS V14.01,2013-02-26 10:07:00,
2013-02-26 05:09:00,77.0,72.8,29.79,SW,223,8.0,14.0,87,0.00,,FEW,0.00,0.00,VWS V14.01,2013-02-26 10:09:00,
2013-02-26 05:10:00,77.0,72.8,29.79,SSE,149,7.0,14.0,87,0.00,,FEW,0.00,0.00,VWS V14.01,2013-02-26 10:10:00,
2013-02-26 05:11:00,77.1,72.9,29.79,SSW,202,7.0,14.0,87,0.00,,FEW,0.00,0.00,VWS V14.01,2013-02-26 10:11:00,
2013-02-26 05:12:00,77.1,72.9,29.79,South,169,7.0,12.0,87,0.00,,FEW,0.00,0.00,VWS V14.01,2013-02-26 10:12:00,
2013-02-26 05:14:00,77.1,72.9,29.79,South,191,8.0,16.0,87,0.00,,FEW,0.00,0.00,VWS V14.01,2013-02-26 10:14:00,
2013-02-26 05:15:00,77.1,72.9,29.79,SSW,201,10.0,16.0,87,0.00,,FEW,0.00,0.00,VWS V14.01,2013-02-26 10:15:00,
2013-02-26 05:16:00,77.1,72.9,29.80,SSE,168,6.0,16.0,87,0.00,,FEW,0.00,0.00,VWS V14.01,2013-02-26 10:16:00,
2013-02-26 05:17:00,77.1,72.9,29.80,South,190,13.0,16.0,87,0.00,,FEW,0.00,0.00,VWS V14.01,2013-02-26 10:17:00,
2013-02-26 05:20:00,77.2,73.0,29.80,South,169,8.0,16.0,87,0.00,,FEW,0.00,0.00,VWS V14.01,2013-02-26 10:20:00,
2013-02-26 05:21:00,77.3,73.5,29.80,SW,234,13.0,16.0,88,0.00,,FEW,0.00,0.00,VWS V14.01,2013-02-26 10:21:00,
2013-02-26 05:22:00,77.3,73.5,29.80,SSE,168,7.0,12.0,88,0.00,,FEW,0.00,0.00,VWS V14.01,2013-02-26 10:22:00,
2013-02-26 05:25:00,77.2,73.4,29.80,South,170,11.0,16.0,88,0.00,,FEW,0.00,0.00,VWS V14.01,2013-02-26 10:25:00,
2013-02-26 05:26:00,77.1,72.9,29.80,SSW,198,8.0,16.0,87,0.00,,FEW,0.00,0.00,VWS V14.01,2013-02-26 10:26:00,
2013-02-26 05:27:00,77.1,72.9,29.80,SSE,161,12.0,16.0,87,0.00,,FEW,0.00,0.00,VWS V14.01,2013-02-26 10:27:00,
2013-02-26 05:30:00,77.1,72.9,29.80,SSW,196,8.0,16.0,87,0.00,,FEW,0.00,0.00,VWS V14.01,2013-02-26 10:30:00,
2013-02-26 05:31:00,77.1,72.9,29.80,SSW,201,9.0,16.0,87,0.00,,FEW,0.00,0.00,VWS V14.01,2013-02-26 10:31:00,
2013-02-26 05:32:00,77.1,72.9,29.80,SSW,202,9.0,11.0,87,0.00,,FEW,0.00,0.00,VWS V14.01,2013-02-26 10:32:00,
2013-02-26 05:35:00,77.1,73.3,29.80,SSW,209,8.0,14.0,88,0.00,,FEW,0.00,0.00,VWS V14.01,2013-02-26 10:35:00,
2013-02-26 05:36:00,77.1,73.3,29.80,SSW,204,7.0,14.0,88,0.00,,FEW,0.00,0.00,VWS V14.01,2013-02-26 10:36:00,
2013-02-26 05:37:00,77.1,73.3,29.80,SSW,198,6.0,14.0,88,0.00,,FEW,0.00,0.00,VWS V14.01,2013-02-26 10:37:00,
2013-02-26 05:40:00,77.2,73.4,29.80,SSE,157,6.0,14.0,88,0.00,,FEW,0.00,0.00,VWS V14.01,2013-02-26 10:40:00,
2013-02-26 05:41:00,77.1,73.3,29.80,South,173,9.0,14.0,88,0.00,,FEW,0.00,0.00,VWS V14.01,2013-02-26 10:41:00,
2013-02-26 05:42:00,77.1,73.3,29.80,SSW,198,6.0,8.0,88,0.00,,FEW,0.00,0.00,VWS V14.01,2013-02-26 10:42:00,
2013-02-26 05:45:00,77.1,73.3,29.80,SW,236,8.0,11.0,88,0.00,,FEW,0.00,0.00,VWS V14.01,2013-02-26 10:45:00,
2013-02-26 05:46:00,77.0,72.8,29.80,SSW,200,5.0,11.0,87,0.00,,FEW,0.00,0.00,VWS V14.01,2013-02-26 10:46:00,
2013-02-26 05:47:00,77.0,72.8,29.80,SSE,153,10.0,11.0,87,0.00,,FEW,0.00,0.00,VWS V14.01,2013-02-26 10:47:00,
2013-02-26 05:48:00,77.0,72.8,29.80,SSE,159,9.0,11.0,87,0.00,,FEW,0.00,0.00,VWS V14.01,2013-02-26 10:48:00,
2013-02-26 05:50:00,77.0,72.8,29.80,SSW,198,5.0,12.0,87,0.00,,FEW,0.00,0.00,VWS V14.01,2013-02-26 10:50:00,
2013-02-26 05:51:00,77.0,73.2,29.80,SSE,161,9.0,12.0,88,0.00,,FEW,0.00,0.00,VWS V14.01,2013-02-26 10:51:00,
2013-02-26 05:52:00,77.0,72.8,29.80,South,188,5.0,14.0,87,0.00,,FEW,0.00,0.00,VWS V14.01,2013-02-26 10:52:00,
2013-02-26 05:53:00,77.0,72.8,29.80,South,189,8.0,14.0,87,0.00,,FEW,0.00,0.00,VWS V14.01,2013-02-26 10:53:00,
2013-02-26 05:56:00,76.9,72.7,29.80,SW,223,7.0,14.0,87,0.00,,FEW,0.00,0.00,VWS V14.01,2013-02-26 10:56:00,
2013-02-26 05:57:00,76.9,72.7,29.80,South,182,10.0,14.0,87,0.00,,FEW,0.00,0.00,VWS V14.01,2013-02-26 10:57:00,
2013-02-26 05:58:00,76.9,72.7,29.80,SSE,158,8.0,14.0,87,0.00,,FEW,0.00,0.00,VWS V14.01,2013-02-26 10:58:00,
2013-02-26 06:01:00,77.0,72.8,29.80,SW,215,7.0,14.0,87,0.00,,FEW,0.00,0.00,VWS V14.01,2013-02-26 11:01:00,
2013-02-26 06:02:00,77.1,72.9,29.80,SW,214,9.0,10.0,87,0.00,,FEW,0.00,0.00,VWS V14.01,2013-02-26 11:02:00,
2013-02-26 06:03:00,77.1,72.9,29.80,SW,227,11.0,11.0,87,0.00,,FEW,0.00,0.00,VWS V14.01,2013-02-26 11:03:00,
2013-02-26 06:06:00,77.1,72.9,29.80,SSW,199,7.0,12.0,87,0.00,,FEW,0.00,0.00,VWS V14.01,2013-02-26 11:06:00,
2013-02-26 06:07:00,77.1,72.9,29.80,SSE,165,6.0,12.0,87,0.00,,FEW,0.00,0.00,VWS V14.01,2013-02-26 11:07:00,
2013-02-26 06:08:00,77.1,72.9,29.80,SSE,157,5.0,12.0,87,0.00,,FEW,0.00,0.00,VWS V14.01,2013-02-26 11:08:00,
2013-02-26 06:11:00,77.1,73.3,29.80,SSW,193,4.0,12.0,88,0.00,,FEW,0.00,0.00,VWS V14.01,2013-02-26 11:11:00,
2013-02-26 06:13:00,77.1,73.3,29.80,SSE,157,5.0,7.0,88,0.00,,FEW,0.00,0.00,VWS V14.01,2013-02-26 11:13:00,
2013-02-26 06:16:00,77.1,73.3,29.81,South,183,5.0,8.0,88,0.00,,FEW,0.00,0.00,VWS V14.01,2013-02-26 11:16:00,
2013-02-26 06:17:00,77.1,73.3,29.81,South,173,5.0,8.0,88,0.00,,FEW,0.00,0.00,VWS V14.01,2013-02-26 11:17:00,
2013-02-26 06:18:00,77.1,73.3,29.81,SSE,159,3.0,10.0,88,0.00,,FEW,0.00,0.00,VWS V14.01,2013-02-26 11:18:00,
2013-02-26 06:21:00,77.0,72.8,29.81,SSW,200,8.0,10.0,87,0.00,,FEW,0.00,0.00,VWS V14.01,2013-02-26 11:21:00,
2013-02-26 06:22:00,77.0,72.8,29.81,SE,128,8.0,8.0,87,0.00,,FEW,0.00,0.00,VWS V14.01,2013-02-26 11:22:00,
2013-02-26 06:23:00,76.9,72.7,29.81,South,188,9.0,10.0,87,0.00,,FEW,0.00,0.00,VWS V14.01,2013-02-26 11:23:00,
2013-02-26 06:26:00,77.0,73.2,29.81,South,180,4.0,11.0,88,0.00,,FEW,0.00,0.00,VWS V14.01,2013-02-26 11:26:00,
2013-02-26 06:27:00,77.0,73.2,29.81,SSE,155,3.0,11.0,88,0.00,,FEW,0.00,0.00,VWS V14.01,2013-02-26 11:27:00,
2013-02-26 06:28:00,77.0,73.2,29.81,SE,130,3.0,11.0,88,0.00,,FEW,0.00,0.00,VWS V14.01,2013-02-26 11:28:00,
2013-02-26 06:29:00,76.9,72.7,29.81,SSE,165,5.0,11.0,87,0.00,,FEW,0.00,0.00,VWS V14.01,2013-02-26 11:29:00,
2013-02-26 06:31:00,76.9,73.1,29.80,SSE,160,4.0,11.0,88,0.00,,FEW,0.00,0.00,VWS V14.01,2013-02-26 11:31:00,
2013-02-26 06:32:00,76.9,73.1,29.80,SSE,167,10.0,10.0,88,0.00,,FEW,0.00,0.00,VWS V14.01,2013-02-26 11:32:00,
2013-02-26 06:33:00,76.9,73.1,29.80,SE,143,2.0,10.0,88,0.00,,FEW,0.00,0.00,VWS V14.01,2013-02-26 11:33:00,
2013-02-26 06:34:00,76.9,73.1,29.80,ESE,112,3.0,10.0,88,0.00,,FEW,0.00,0.00,VWS V14.01,2013-02-26 11:34:00,
2013-02-26 06:36:00,76.9,73.1,29.80,SE,138,3.0,10.0,88,0.00,,FEW,0.00,0.00,VWS V14.01,2013-02-26 11:36:00,
2013-02-26 06:37:00,76.9,73.1,29.80,SE,144,5.0,10.0,88,0.00,,FEW,0.00,0.00,VWS V14.01,2013-02-26 11:37:00,
2013-02-26 06:38:00,77.0,73.2,29.80,South,169,6.0,10.0,88,0.00,,FEW,0.00,0.00,VWS V14.01,2013-02-26 11:38:00,
2013-02-26 06:39:00,77.0,73.2,29.80,SSE,165,4.0,11.0,88,0.00,,FEW,0.00,0.00,VWS V14.01,2013-02-26 11:39:00,
2013-02-26 06:42:00,77.0,73.2,29.80,SSE,151,3.0,6.0,88,0.00,,FEW,0.00,0.00,VWS V14.01,2013-02-26 11:42:00,
2013-02-26 06:43:00,77.0,73.2,29.80,SSE,158,4.0,11.0,88,0.00,,FEW,0.00,0.00,VWS V14.01,2013-02-26 11:43:00,
2013-02-26 06:44:00,77.1,73.3,29.80,SSE,162,7.0,11.0,88,0.00,,FEW,0.00,0.00,VWS V14.01,2013-02-26 11:44:00,
2013-02-26 06:47:00,77.0,73.2,29.82,SSE,163,9.0,11.0,88,0.00,,FEW,0.00,0.00,VWS V14.01,2013-02-26 11:47:00,
2013-02-26 06:48:00,77.0,73.2,29.82,South,171,8.0,11.0,88,0.00,,FEW,0.00,0.00,VWS V14.01,2013-02-26 11:48:00,
2013-02-26 06:49:00,77.0,73.2,29.82,SE,142,9.0,11.0,88,0.00,,FEW,0.00,5.00,VWS V14.01,2013-02-26 11:49:00,
2013-02-26 06:52:00,77.0,73.2,29.82,SSW,209,3.0,6.0,88,0.00,,FEW,0.00,5.00,VWS V14.01,2013-02-26 11:52:00,
2013-02-26 06:53:00,77.0,73.2,29.82,South,173,4.0,9.0,88,0.00,,FEW,0.00,7.00,VWS V14.01,2013-02-26 11:53:00,
2013-02-26 06:54:00,77.0,73.2,29.82,South,180,6.0,9.0,88,0.00,,FEW,0.00,7.00,VWS V14.01,2013-02-26 11:54:00,
2013-02-26 06:57:00,76.9,73.1,29.82,East,100,3.0,9.0,88,0.00,,FEW,0.00,11.00,VWS V14.01,2013-02-26 11:57:00,
2013-02-26 06:59:00,76.9,73.1,29.82,South,175,6.0,9.0,88,0.00,,FEW,0.00,12.00,VWS V14.01,2013-02-26 11:59:00,
2013-02-26 07:02:00,77.0,73.2,29.82,SSE,156,6.0,8.0,88,0.00,,FEW,0.00,16.00,VWS V14.01,2013-02-26 12:02:00,
2013-02-26 07:03:00,76.9,73.1,29.82,SE,138,3.0,8.0,88,0.00,,FEW,0.00,16.00,VWS V14.01,2013-02-26 12:03:00,
2013-02-26 07:04:00,76.9,73.1,29.82,SSE,160,3.0,8.0,88,0.00,,FEW,0.00,16.00,VWS V14.01,2013-02-26 12:04:00,
2013-02-26 07:08:00,76.9,73.1,29.82,South,189,7.0,8.0,88,0.00,,FEW,0.00,19.00,VWS V14.01,2013-02-26 12:08:00,
2013-02-26 07:09:00,76.9,73.1,29.82,SSE,148,4.0,9.0,88,0.00,,FEW,0.00,21.00,VWS V14.01,2013-02-26 12:09:00,
2013-02-26 07:10:00,76.9,73.1,29.82,SE,142,5.0,9.0,88,0.00,,FEW,0.00,21.00,VWS V14.01,2013-02-26 12:10:00,
2013-02-26 07:13:00,76.9,73.1,29.82,SE,132,5.0,8.0,88,0.00,,FEW,0.00,25.00,VWS V14.01,2013-02-26 12:13:00,
2013-02-26 07:14:00,76.8,72.6,29.82,South,177,6.0,8.0,87,0.00,,FEW,0.00,28.00,VWS V14.01,2013-02-26 12:14:00,
2013-02-26 07:15:00,76.8,72.6,29.82,SSE,147,2.0,8.0,87,0.00,,FEW,0.00,28.00,VWS V14.01,2013-02-26 12:15:00,
2013-02-26 07:18:00,76.9,72.7,29.82,ESE,119,4.0,10.0,87,0.00,,FEW,0.00,33.00,VWS V14.01,2013-02-26 12:18:00,
2013-02-26 07:19:00,76.9,72.7,29.82,SE,131,4.0,11.0,87,0.00,,FEW,0.00,33.00,VWS V14.01,2013-02-26 12:19:00,
2013-02-26 07:20:00,77.0,72.8,29.82,SE,144,7.0,11.0,87,0.00,,FEW,0.00,37.00,VWS V14.01,2013-02-26 12:20:00,
2013-02-26 07:23:00,77.0,72.8,29.82,South,184,5.0,8.0,87,0.00,,FEW,0.00,37.00,VWS V14.01,2013-02-26 12:23:00,
2013-02-26 07:24:00,77.0,72.5,29.82,SSW,208,5.0,10.0,86,0.00,,FEW,0.00,46.00,VWS V14.01,2013-02-26 12:24:00,
2013-02-26 07:25:00,77.0,72.5,29.82,ESE,120,8.0,10.0,86,0.00,,FEW,0.00,51.00,VWS V14.01,2013-02-26 12:25:00,
2013-02-26 07:28:00,77.1,72.6,29.82,ESE,105,7.0,10.0,86,0.00,,FEW,0.00,42.00,VWS V14.01,2013-02-26 12:28:00,
2013-02-26 07:29:00,77.1,72.6,29.82,SE,125,4.0,12.0,86,0.00,,FEW,0.00,49.00,VWS V14.01,2013-02-26 12:29:00,
2013-02-26 07:30:00,77.1,72.6,29.82,SSE,167,7.0,12.0,86,0.00,,FEW,0.00,46.00,VWS V14.01,2013-02-26 12:30:00,
2013-02-26 07:33:00,77.2,72.7,29.82,SSE,153,3.0,9.0,86,0.00,,FEW,0.00,54.00,VWS V14.01,2013-02-26 12:33:00,
2013-02-26 07:34:00,77.3,72.8,29.82,South,174,4.0,9.0,86,0.00,,FEW,0.00,53.00,VWS V14.01,2013-02-26 12:34:00,
2013-02-26 07:35:00,77.3,72.8,29.82,SE,134,4.0,9.0,86,0.00,,FEW,0.00,54.00,VWS V14.01,2013-02-26 12:35:00,
2013-02-26 07:38:00,77.4,72.9,29.82,SE,140,4.0,9.0,86,0.00,,FEW,0.00,107.00,VWS V14.01,2013-02-26 12:38:00,
2013-02-26 07:39:00,77.4,72.9,29.82,SE,143,2.0,9.0,86,0.00,,FEW,0.00,79.00,VWS V14.01,2013-02-26 12:39:00,
2013-02-26 07:40:00,77.5,73.0,29.82,SSE,147,4.0,9.0,86,0.00,,FEW,0.00,90.00,VWS V14.01,2013-02-26 12:40:00,
2013-02-26 07:43:00,77.6,73.1,29.82,SSE,151,5.0,6.0,86,0.00,,FEW,0.00,118.00,VWS V14.01,2013-02-26 12:43:00,
2013-02-26 07:44:00,77.6,73.1,29.82,SSE,167,6.0,9.0,86,0.00,,FEW,0.00,118.00,VWS V14.01,2013-02-26 12:44:00,
2013-02-26 07:45:00,77.7,73.2,29.82,ESE,117,4.0,9.0,86,0.00,,FEW,0.00,153.00,VWS V14.01,2013-02-26 12:45:00,
2013-02-26 07:49:00,77.9,73.4,29.83,SSE,162,6.0,11.0,86,0.00,,FEW,0.00,183.00,VWS V14.01,2013-02-26 12:49:00,
2013-02-26 07:50:00,77.9,73.4,29.83,SSE,151,5.0,11.0,86,0.00,,FEW,0.00,181.00,VWS V14.01,2013-02-26 12:50:00,
2013-02-26 07:51:00,77.9,73.4,29.83,SE,142,6.0,11.0,86,0.00,,FEW,0.00,183.00,VWS V14.01,2013-02-26 12:51:00,
2013-02-26 07:54:00,78.1,73.6,29.83,SE,143,4.0,9.0,86,0.00,,FEW,0.00,227.00,VWS V14.01,2013-02-26 12:54:00,
2013-02-26 07:55:00,78.2,73.7,29.83,South,171,6.0,9.0,86,0.00,,FEW,0.00,232.00,VWS V14.01,2013-02-26 12:55:00,
2013-02-26 07:56:00,78.2,73.7,29.83,SSW,205,6.0,9.0,86,0.00,,FEW,0.00,237.00,VWS V14.01,2013-02-26 12:56:00,
2013-02-26 07:59:00,78.3,73.8,29.83,SE,137,6.0,9.0,86,0.00,,FEW,0.00,234.00,VWS V14.01,2013-02-26 12:59:00,
2013-02-26 08:00:00,78.4,73.5,29.83,South,178,5.0,11.0,85,0.00,,FEW,0.00,236.00,VWS V14.01,2013-02-26 13:00:00,
2013-02-26 08:01:00,78.4,73.5,29.84,South,178,8.0,11.0,85,0.00,,FEW,0.00,253.00,VWS V14.01,2013-02-26 13:01:00,
2013-02-26 08:04:00,78.5,73.6,29.84,SSE,153,8.0,12.0,85,0.00,,FEW,0.00,271.00,VWS V14.01,2013-02-26 13:04:00,
2013-02-26 08:05:00,78.5,73.6,29.84,South,184,8.0,12.0,85,0.00,,FEW,0.00,262.00,VWS V14.01,2013-02-26 13:05:00,
2013-02-26 08:06:00,78.6,73.7,29.84,SW,221,6.0,12.0,85,0.00,,FEW,0.00,264.00,VWS V14.01,2013-02-26 13:06:00,
2013-02-26 08:09:00,78.8,73.9,29.84,South,183,4.0,12.0,85,0.00,,FEW,0.00,160.00,VWS V14.01,2013-02-26 13:09:00,
2013-02-26 08:10:00,78.8,73.9,29.84,SE,142,7.0,12.0,85,0.00,,FEW,0.00,160.00,VWS V14.01,2013-02-26 13:10:00,
2013-02-26 08:11:00,78.8,73.9,29.84,South,183,5.0,12.0,85,0.00,,FEW,0.00,149.00,VWS V14.01,2013-02-26 13:11:00,
2013-02-26 08:14:00,78.8,73.9,29.84,SW,215,5.0,7.0,85,0.00,,FEW,0.00,301.00,VWS V14.01,2013-02-26 13:14:00,
2013-02-26 08:15:00,78.8,73.9,29.84,SW,215,5.0,7.0,85,0.00,,FEW,0.00,301.00,VWS V14.01,2013-02-26 13:15:00,
2013-02-26 08:16:00,78.7,73.8,29.85,SW,221,7.0,8.0,85,0.00,,FEW,0.00,315.00,VWS V14.01,2013-02-26 13:16:00,
2013-02-26 08:20:00,78.8,73.9,29.85,SSW,192,5.0,12.0,85,0.00,,FEW,0.00,178.00,VWS V14.01,2013-02-26 13:20:00,
2013-02-26 08:21:00,78.8,73.9,29.85,South,178,5.0,12.0,85,0.00,,FEW,0.00,287.00,VWS V14.01,2013-02-26 13:21:00,
2013-02-26 08:25:00,78.8,73.9,29.85,WSW,246,7.0,12.0,85,0.00,,FEW,0.00,190.00,VWS V14.01,2013-02-26 13:25:00,
2013-02-26 08:26:00,78.7,73.8,29.85,SSW,207,7.0,13.0,85,0.00,,FEW,0.00,144.00,VWS V14.01,2013-02-26 13:26:00,
2013-02-26 08:30:00,78.7,73.8,29.85,SSE,166,9.0,13.0,85,0.00,,FEW,0.00,178.00,VWS V14.01,2013-02-26 13:30:00,
2013-02-26 08:31:00,78.7,73.8,29.85,SSW,194,5.0,13.0,85,0.00,,FEW,0.00,183.00,VWS V14.01,2013-02-26 13:31:00,
2013-02-26 08:35:00,78.7,73.8,29.85,SSE,168,7.0,9.0,85,0.00,,FEW,0.00,197.00,VWS V14.01,2013-02-26 13:35:00,
2013-02-26 08:37:00,78.9,74.4,29.85,South,169,5.0,9.0,86,0.00,,FEW,0.00,371.00,VWS V14.01,2013-02-26 13:37:00,
2013-02-26 08:40:00,79.0,74.1,29.85,SSW,197,4.0,12.0,85,0.00,,FEW,0.00,339.00,VWS V14.01,2013-02-26 13:40:00,
2013-02-26 08:42:00,79.1,73.8,29.85,SSW,192,7.0,7.0,84,0.00,,FEW,0.00,279.00,VWS V14.01,2013-02-26 13:42:00,
2013-02-26 08:45:00,79.2,73.9,29.85,South,181,11.0,11.0,84,0.00,,FEW,0.00,271.00,VWS V14.01,2013-02-26 13:45:00,
2013-02-26 08:47:00,79.2,73.9,29.85,SSE,166,5.0,13.0,84,0.00,,FEW,0.00,271.00,VWS V14.01,2013-02-26 13:47:00,
2013-02-26 08:50:00,79.2,73.9,29.85,SSE,165,6.0,13.0,84,0.00,,FEW,0.00,111.00,VWS V14.01,2013-02-26 13:50:00,
2013-02-26 08:51:00,79.2,73.9,29.85,SE,146,7.0,13.0,84,0.00,,FEW,0.00,109.00,VWS V14.01,2013-02-26 13:51:00,
2013-02-26 08:52:00,79.1,73.8,29.85,SSE,165,5.0,6.0,84,0.00,,FEW,0.00,109.00,VWS V14.01,2013-02-26 13:52:00,
2013-02-26 08:55:00,79.2,73.9,29.85,SSE,158,6.0,11.0,84,0.00,,FEW,0.00,193.00,VWS V14.01,2013-02-26 13:55:00,
2013-02-26 08:56:00,79.2,73.9,29.85,SSE,160,6.0,11.0,84,0.00,,FEW,0.00,193.00,VWS V14.01,2013-02-26 13:56:00,
2013-02-26 08:57:00,79.2,73.9,29.85,SW,217,6.0,11.0,84,0.00,,FEW,0.00,186.00,VWS V14.01,2013-02-26 13:57:00,
2013-02-26 09:00:00,79.2,73.9,29.85,SSE,163,6.0,14.0,84,0.00,,FEW,0.00,134.00,VWS V14.01,2013-02-26 14:00:00,
2013-02-26 09:01:00,79.2,73.9,29.85,SE,134,4.0,14.0,84,0.00,,FEW,0.00,134.00,VWS V14.01,2013-02-26 14:01:00,
2013-02-26 09:02:00,79.2,73.9,29.85,SSW,200,7.0,10.0,84,0.00,,FEW,0.00,227.00,VWS V14.01,2013-02-26 14:02:00,
2013-02-26 09:05:00,79.4,74.5,29.85,South,184,7.0,11.0,85,0.00,,FEW,0.00,420.00,VWS V14.01,2013-02-26 14:05:00,
2013-02-26 09:06:00,79.5,74.6,29.85,South,176,6.0,11.0,85,0.00,,FEW,0.00,410.00,VWS V14.01,2013-02-26 14:06:00,
2013-02-26 09:07:00,79.6,74.7,29.85,SSW,193,7.0,11.0,85,0.00,,FEW,0.00,408.00,VWS V14.01,2013-02-26 14:07:00,
2013-02-26 09:10:00,79.8,74.5,29.85,South,187,12.0,12.0,84,0.00,,FEW,0.00,438.00,VWS V14.01,2013-02-26 14:10:00,
2013-02-26 09:11:00,79.8,74.5,29.85,SSE,162,13.0,15.0,84,0.00,,FEW,0.00,431.00,VWS V14.01,2013-02-26 14:11:00,
2013-02-26 09:12:00,79.8,74.2,29.85,South,184,8.0,8.0,83,0.00,,FEW,0.00,420.00,VWS V14.01,2013-02-26 14:12:00,
2013-02-26 09:15:00,79.9,74.3,29.85,SSW,200,7.0,11.0,83,0.00,,FEW,0.00,480.00,VWS V14.01,2013-02-26 14:15:00,
2013-02-26 09:16:00,80.0,74.4,29.86,SSE,167,6.0,11.0,83,0.00,,FEW,0.00,483.00,VWS V14.01,2013-02-26 14:16:00,
2013-02-26 09:17:00,80.0,74.4,29.86,South,175,10.0,11.0,83,0.00,,FEW,0.00,455.00,VWS V14.01,2013-02-26 14:17:00,
2013-02-26 09:20:00,80.1,74.5,29.86,SE,146,9.0,13.0,83,0.00,,FEW,0.00,533.00,VWS V14.01,2013-02-26 14:20:00,
2013-02-26 09:21:00,80.1,74.5,29.86,South,187,8.0,13.0,83,0.00,,FEW,0.00,533.00,VWS V14.01,2013-02-26 14:21:00,
2013-02-26 09:22:00,80.1,74.5,29.86,SE,132,5.0,10.0,83,0.00,,FEW,0.00,533.00,VWS V14.01,2013-02-26 14:22:00,
2013-02-26 09:25:00,80.0,74.4,29.86,SSW,202,7.0,11.0,83,0.00,,FEW,0.00,313.00,VWS V14.01,2013-02-26 14:25:00,
2013-02-26 09:26:00,80.0,74.4,29.86,SSW,205,7.0,11.0,83,0.00,,FEW,0.00,313.00,VWS V14.01,2013-02-26 14:26:00,
2013-02-26 09:27:00,80.0,74.4,29.86,SSE,148,4.0,11.0,83,0.00,,FEW,0.00,322.00,VWS V14.01,2013-02-26 14:27:00,
2013-02-26 09:30:00,80.0,74.4,29.86,SSE,162,6.0,11.0,83,0.00,,FEW,0.00,445.00,VWS V14.01,2013-02-26 14:30:00,
2013-02-26 09:31:00,80.0,74.4,29.86,SSW,195,3.0,11.0,83,0.00,,FEW,0.00,445.00,VWS V14.01,2013-02-26 14:31:00,
2013-02-26 09:32:00,80.2,74.9,29.86,South,182,6.0,8.0,84,0.00,,FEW,0.00,497.00,VWS V14.01,2013-02-26 14:32:00,
2013-02-26 09:36:00,80.3,74.7,29.86,South,180,7.0,10.0,83,0.00,,FEW,0.00,301.00,VWS V14.01,2013-02-26 14:36:00,
2013-02-26 09:37:00,80.3,74.7,29.86,WSW,242,7.0,10.0,83,0.00,,FEW,0.00,276.00,VWS V14.01,2013-02-26 14:37:00,
2013-02-26 09:41:00,80.2,74.6,29.86,SSE,165,6.0,12.0,83,0.00,,FEW,0.00,292.00,VWS V14.01,2013-02-26 14:41:00,
2013-02-26 09:42:00,80.2,74.6,29.86,South,182,14.0,14.0,83,0.00,,FEW,0.00,269.00,VWS V14.01,2013-02-26 14:42:00,
2013-02-26 09:46:00,80.1,74.5,29.87,SE,144,5.0,14.0,83,0.00,,FEW,0.00,279.00,VWS V14.01,2013-02-26 14:46:00,
2013-02-26 09:47:00,80.1,74.5,29.87,SE,128,6.0,14.0,83,0.00,,FEW,0.00,281.00,VWS V14.01,2013-02-26 14:47:00,
2013-02-26 09:51:00,80.2,74.9,29.87,SE,141,8.0,14.0,84,0.00,,FEW,0.00,306.00,VWS V14.01,2013-02-26 14:51:00,
2013-02-26 09:52:00,80.1,74.8,29.87,South,178,8.0,8.0,84,0.00,,FEW,0.00,308.00,VWS V14.01,2013-02-26 14:52:00,
2013-02-26 09:56:00,80.1,74.8,29.87,SSE,150,5.0,10.0,84,0.00,,FEW,0.00,264.00,VWS V14.01,2013-02-26 14:56:00,
2013-02-26 09:57:00,80.1,74.8,29.87,SW,227,3.0,10.0,84,0.00,,FEW,0.00,248.00,VWS V14.01,2013-02-26 14:57:00,
2013-02-26 10:01:00,80.1,74.8,29.88,South,177,10.0,12.0,84,0.00,,FEW,0.00,236.00,VWS V14.01,2013-02-26 15:01:00,
2013-02-26 10:03:00,80.0,74.7,29.88,SSE,155,7.0,12.0,84,0.00,,FEW,0.00,241.00,VWS V14.01,2013-02-26 15:03:00,
2013-02-26 10:06:00,79.8,74.5,29.88,South,170,7.0,12.0,84,0.00,,FEW,0.00,251.00,VWS V14.01,2013-02-26 15:06:00,
2013-02-26 10:07:00,79.8,74.2,29.88,SW,229,4.0,12.0,83,0.00,,FEW,0.00,251.00,VWS V14.01,2013-02-26 15:07:00,
2013-02-26 10:08:00,79.8,74.2,29.88,SSE,162,7.0,12.0,83,0.00,,FEW,0.00,272.00,VWS V14.01,2013-02-26 15:08:00,
2013-02-26 10:11:00,79.9,74.6,29.88,SW,214,7.0,12.0,84,0.00,,FEW,0.00,297.00,VWS V14.01,2013-02-26 15:11:00,
2013-02-26 10:12:00,79.9,74.6,29.88,SE,126,7.0,9.0,84,0.00,,FEW,0.00,297.00,VWS V14.01,2013-02-26 15:12:00,
2013-02-26 10:13:00,80.0,74.7,29.88,South,185,6.0,9.0,84,0.00,,FEW,0.00,285.00,VWS V14.01,2013-02-26 15:13:00,
2013-02-26 10:16:00,80.1,74.8,29.88,SSE,164,4.0,9.0,84,0.00,,FEW,0.00,269.00,VWS V14.01,2013-02-26 15:16:00,
2013-02-26 10:17:00,80.1,74.8,29.88,South,177,4.0,9.0,84,0.00,,FEW,0.00,279.00,VWS V14.01,2013-02-26 15:17:00,
2013-02-26 10:18:00,80.2,74.9,29.88,South,178,6.0,9.0,84,0.00,,FEW,0.00,278.00,VWS V14.01,2013-02-26 15:18:00,
2013-02-26 10:21:00,80.2,75.3,29.88,SSW,194,4.0,9.0,85,0.00,,FEW,0.00,323.00,VWS V14.01,2013-02-26 15:21:00,
2013-02-26 10:22:00,80.3,75.4,29.88,South,181,5.0,6.0,85,0.00,,FEW,0.00,267.00,VWS V14.01,2013-02-26 15:22:00,
2013-02-26 10:23:00,80.3,75.0,29.88,South,183,6.0,7.0,84,0.00,,FEW,0.00,250.00,VWS V14.01,2013-02-26 15:23:00,
2013-02-26 10:27:00,80.3,75.0,29.88,SSE,153,8.0,9.0,84,0.00,,FEW,0.00,341.00,VWS V14.01,2013-02-26 15:27:00,
2013-02-26 10:28:00,80.3,75.0,29.88,SE,128,3.0,9.0,84,0.00,,FEW,0.00,274.00,VWS V14.01,2013-02-26 15:28:00,
2013-02-26 10:32:00,80.2,74.9,29.89,SE,143,5.0,6.0,84,0.00,,FEW,0.00,241.00,VWS V14.01,2013-02-26 15:32:00,
2013-02-26 10:34:00,80.2,74.9,29.89,SE,136,5.0,8.0,84,0.00,,FEW,0.00,262.00,VWS V14.01,2013-02-26 15:34:00,
2013-02-26 10:37:00,80.2,74.9,29.89,SE,131,5.0,8.0,84,0.00,,FEW,0.00,316.00,VWS V14.01,2013-02-26 15:37:00,
2013-02-26 10:39:00,80.2,74.9,29.89,SSE,152,7.0,8.0,84,0.00,,FEW,0.00,322.00,VWS V14.01,2013-02-26 15:39:00,
2013-02-26 10:42:00,80.4,75.1,29.89,South,186,7.0,8.0,84,0.00,,FEW,0.00,383.00,VWS V14.01,2013-02-26 15:42:00,
2013-02-26 10:44:00,80.5,75.2,29.89,SW,217,4.0,9.0,84,0.00,,FEW,0.00,318.00,VWS V14.01,2013-02-26 15:44:00,
2013-02-26 10:47:00,80.6,75.3,29.88,South,186,2.0,12.0,84,0.00,,FEW,0.00,241.00,VWS V14.01,2013-02-26 15:47:00,
2013-02-26 10:49:00,80.6,75.3,29.88,SSW,203,5.0,12.0,84,0.00,,FEW,0.00,325.00,VWS V14.01,2013-02-26 15:49:00,
2013-02-26 10:52:00,80.5,75.2,29.88,ESE,123,8.0,8.0,84,0.00,,FEW,0.00,330.00,VWS V14.01,2013-02-26 15:52:00,
2013-02-26 10:53:00,80.4,75.1,29.88,SSE,166,4.0,10.0,84,0.00,,FEW,0.00,325.00,VWS V14.01,2013-02-26 15:53:00,
2013-02-26 10:54:00,80.3,75.0,29.88,SSW,195,8.0,10.0,84,0.00,,FEW,0.00,362.00,VWS V14.01,2013-02-26 15:54:00,
2013-02-26 10:57:00,80.5,75.6,29.88,South,169,7.0,10.0,85,0.00,,FEW,0.00,397.00,VWS V14.01,2013-02-26 15:57:00,
2013-02-26 10:58:00,80.6,75.7,29.88,ESE,121,4.0,10.0,85,0.00,,FEW,0.00,332.00,VWS V14.01,2013-02-26 15:58:00,
2013-02-26 10:59:00,80.7,75.8,29.88,South,182,6.0,10.0,85,0.00,,FEW,0.00,302.00,VWS V14.01,2013-02-26 15:59:00,
2013-02-26 11:02:00,80.7,75.4,29.88,South,182,4.0,10.0,84,0.00,,FEW,0.00,304.00,VWS V14.01,2013-02-26 16:02:00,
2013-02-26 11:03:00,80.7,75.4,29.88,SSW,192,3.0,10.0,84,0.00,,FEW,0.00,304.00,VWS V14.01,2013-02-26 16:03:00,
2013-02-26 11:04:00,80.6,75.0,29.88,SSE,159,5.0,11.0,83,0.00,,FEW,0.00,292.00,VWS V14.01,2013-02-26 16:04:00,
2013-02-26 11:07:00,80.5,75.2,29.88,SE,126,4.0,11.0,84,0.00,,FEW,0.00,425.00,VWS V14.01,2013-02-26 16:07:00,
2013-02-26 11:08:00,80.5,75.2,29.88,SSE,148,7.0,11.0,84,0.00,,FEW,0.00,355.00,VWS V14.01,2013-02-26 16:08:00,
2013-02-26 11:09:00,80.5,75.2,29.88,South,169,4.0,11.0,84,0.00,,FEW,0.00,294.00,VWS V14.01,2013-02-26 16:09:00,
2013-02-26 11:12:00,80.5,75.2,29.88,SSE,151,4.0,9.0,84,0.00,,FEW,0.00,260.00,VWS V14.01,2013-02-26 16:12:00,
2013-02-26 11:13:00,80.5,75.2,29.88,South,181,4.0,9.0,84,0.00,,FEW,0.00,260.00,VWS V14.01,2013-02-26 16:13:00,
2013-02-26 11:14:00,80.4,75.1,29.88,SSE,165,9.0,9.0,84,0.00,,FEW,0.00,336.00,VWS V14.01,2013-02-26 16:14:00,
2013-02-26 11:17:00,80.4,75.5,29.88,SSW,195,2.0,9.0,85,0.00,,FEW,0.00,348.00,VWS V14.01,2013-02-26 16:17:00,
2013-02-26 11:18:00,80.4,75.5,29.88,SE,140,5.0,9.0,85,0.00,,FEW,0.00,348.00,VWS V14.01,2013-02-26 16:18:00,
2013-02-26 11:19:00,80.5,75.6,29.88,South,190,5.0,9.0,85,0.00,,FEW,0.00,362.00,VWS V14.01,2013-02-26 16:19:00,
2013-02-26 11:22:00,81.0,75.7,29.88,South,183,2.0,7.0,84,0.00,,FEW,0.00,362.00,VWS V14.01,2013-02-26 16:22:00,
2013-02-26 11:23:00,81.0,75.7,29.88,SSW,199,8.0,8.0,84,0.00,,FEW,0.00,362.00,VWS V14.01,2013-02-26 16:23:00,
2013-02-26 11:24:00,81.1,75.8,29.88,SW,226,4.0,8.0,84,0.00,,FEW,0.00,364.00,VWS V14.01,2013-02-26 16:24:00,
2013-02-26 11:27:00,81.0,75.7,29.88,SSE,157,7.0,8.0,84,0.00,,FEW,0.00,325.00,VWS V14.01,2013-02-26 16:27:00,
2013-02-26 11:28:00,81.0,75.7,29.88,SSE,157,4.0,12.0,84,0.00,,FEW,0.00,322.00,VWS V14.01,2013-02-26 16:28:00,
2013-02-26 11:29:00,81.0,75.7,29.88,SSW,213,5.0,12.0,84,0.00,,FEW,0.00,297.00,VWS V14.01,2013-02-26 16:29:00,
2013-02-26 11:33:00,80.7,75.1,29.88,SSE,155,4.0,8.0,83,0.00,,FEW,0.00,322.00,VWS V14.01,2013-02-26 16:33:00,
2013-02-26 11:34:00,80.7,75.4,29.88,ESE,102,2.0,8.0,84,0.00,,FEW,0.00,369.00,VWS V14.01,2013-02-26 16:34:00,
2013-02-26 11:38:00,80.9,75.6,29.88,South,171,4.0,8.0,84,0.00,,FEW,0.00,299.00,VWS V14.01,2013-02-26 16:38:00,
2013-02-26 11:39:00,80.9,75.6,29.88,SSW,196,6.0,9.0,84,0.00,,FEW,0.00,306.00,VWS V14.01,2013-02-26 16:39:00,
2013-02-26 11:43:00,80.9,75.6,29.88,SSW,198,7.0,7.0,84,0.00,,FEW,0.00,420.00,VWS V14.01,2013-02-26 16:43:00,
2013-02-26 11:44:00,81.0,75.7,29.88,South,169,5.0,7.0,84,0.00,,FEW,0.00,420.00,VWS V14.01,2013-02-26 16:44:00,
2013-02-26 11:45:00,81.0,75.7,29.88,SE,138,4.0,11.0,84,0.00,,FEW,0.00,420.00,VWS V14.01,2013-02-26 16:45:00,
2013-02-26 11:48:00,81.0,75.3,29.88,South,170,7.0,11.0,83,0.00,,FEW,0.00,503.00,VWS V14.01,2013-02-26 16:48:00,
2013-02-26 11:49:00,81.1,75.4,29.88,SE,130,7.0,11.0,83,0.00,,FEW,0.00,503.00,VWS V14.01,2013-02-26 16:49:00,
2013-02-26 11:50:00,81.1,75.4,29.88,SSW,213,6.0,11.0,83,0.00,,FEW,0.00,469.00,VWS V14.01,2013-02-26 16:50:00,
2013-02-26 11:53:00,81.1,75.4,29.88,South,190,7.0,9.0,83,0.00,,FEW,0.00,469.00,VWS V14.01,2013-02-26 16:53:00,
2013-02-26 11:54:00,81.2,75.6,29.88,South,171,8.0,9.0,83,0.00,,FEW,0.00,891.00,VWS V14.01,2013-02-26 16:54:00,
2013-02-26 11:55:00,81.4,75.7,29.88,SSW,195,6.0,9.0,83,0.00,,FEW,0.00,958.00,VWS V14.01,2013-02-26 16:55:00,
2013-02-26 11:58:00,81.8,75.8,29.88,SSE,161,6.0,9.0,82,0.00,,FEW,0.00,455.00,VWS V14.01,2013-02-26 16:58:00,
2013-02-26 11:59:00,81.8,75.8,29.88,SSE,159,8.0,9.0,82,0.00,,FEW,0.00,504.00,VWS V14.01,2013-02-26 16:59:00,
2013-02-26 12:00:00,81.8,75.8,29.88,SSW,201,5.0,9.0,82,0.00,,FEW,0.00,466.00,VWS V14.01,2013-02-26 17:00:00,
2013-02-26 12:03:00,81.6,75.6,29.88,South,183,3.0,8.0,82,0.00,,FEW,0.00,436.00,VWS V14.01,2013-02-26 17:03:00,
2013-02-26 12:04:00,81.6,75.6,29.88,South,177,4.0,8.0,82,0.00,,FEW,0.00,431.00,VWS V14.01,2013-02-26 17:04:00,
2013-02-26 12:05:00,81.5,75.5,29.88,South,178,5.0,10.0,82,0.00,,FEW,0.00,415.00,VWS V14.01,2013-02-26 17:05:00,
2013-02-26 12:08:00,81.3,75.3,29.88,SSW,197,7.0,11.0,82,0.00,,FEW,0.00,527.00,VWS V14.01,2013-02-26 17:08:00,
2013-02-26 12:09:00,81.2,75.2,29.88,SSW,192,5.0,12.0,82,0.00,,FEW,0.00,480.00,VWS V14.01,2013-02-26 17:09:00,
2013-02-26 12:10:00,81.2,75.2,29.88,SSE,167,3.0,12.0,82,0.00,,FEW,0.00,476.00,VWS V14.01,2013-02-26 17:10:00,
2013-02-26 12:13:00,81.2,75.6,29.88,South,171,5.0,7.0,83,0.00,,FEW,0.00,403.00,VWS V14.01,2013-02-26 17:13:00,
2013-02-26 12:14:00,81.1,75.1,29.88,SE,135,3.0,7.0,82,0.00,,FEW,0.00,394.00,VWS V14.01,2013-02-26 17:14:00,
2013-02-26 12:15:00,81.1,75.4,29.88,South,182,5.0,7.0,83,0.00,,FEW,0.00,392.00,VWS V14.01,2013-02-26 17:15:00,
2013-02-26 12:18:00,81.0,75.0,29.88,SSE,150,6.0,8.0,82,0.00,,FEW,0.00,401.00,VWS V14.01,2013-02-26 17:18:00,
2013-02-26 12:20:00,80.9,75.3,29.88,South,187,3.0,8.0,83,0.00,,FEW,0.00,413.00,VWS V14.01,2013-02-26 17:20:00,
2013-02-26 12:23:00,81.1,75.4,29.88,SSW,202,7.0,9.0,83,0.00,,FEW,0.00,548.00,VWS V14.01,2013-02-26 17:23:00,
2013-02-26 12:25:00,81.2,75.6,29.88,SSE,161,7.0,9.0,83,0.00,,FEW,0.00,561.00,VWS V14.01,2013-02-26 17:25:00,
2013-02-26 12:28:00,81.6,75.6,29.88,SW,221,4.0,9.0,82,0.00,,FEW,0.00,673.00,VWS V14.01,2013-02-26 17:28:00,
2013-02-26 12:30:00,81.6,75.6,29.88,SSW,213,4.0,9.0,82,0.00,,FEW,0.00,559.00,VWS V14.01,2013-02-26 17:30:00,
2013-02-26 12:33:00,81.2,75.2,29.89,South,174,7.0,10.0,82,0.00,,FEW,0.00,376.00,VWS V14.01,2013-02-26 17:33:00,
2013-02-26 12:35:00,81.1,75.1,29.89,SSE,148,6.0,10.0,82,0.00,,FEW,0.00,385.00,VWS V14.01,2013-02-26 17:35:00,
2013-02-26 12:36:00,81.0,75.3,29.89,SSW,201,6.0,10.0,83,0.00,,FEW,0.00,394.00,VWS V14.01,2013-02-26 17:36:00,
2013-02-26 12:38:00,80.9,75.6,29.89,SSE,150,4.0,10.0,84,0.00,,FEW,0.00,541.00,VWS V14.01,2013-02-26 17:38:00,
2013-02-26 12:40:00,80.9,75.3,29.89,South,182,4.0,10.0,83,0.00,,FEW,0.00,408.00,VWS V14.01,2013-02-26 17:40:00,
2013-02-26 12:41:00,80.9,75.3,29.89,SSW,199,5.0,10.0,83,0.00,,FEW,0.00,501.00,VWS V14.01,2013-02-26 17:41:00,
2013-02-26 12:43:00,80.9,75.3,29.89,South,175,8.0,9.0,83,0.00,,FEW,0.00,429.00,VWS V14.01,2013-02-26 17:43:00,
2013-02-26 12:45:00,81.0,75.7,29.89,South,178,7.0,9.0,84,0.00,,FEW,0.00,1023.00,VWS V14.01,2013-02-26 17:45:00,
2013-02-26 12:46:00,81.2,75.9,29.89,SSW,200,5.0,9.0,84,0.00,,FEW,0.00,1023.00,VWS V14.01,2013-02-26 17:46:00,
2013-02-26 12:48:00,81.5,75.8,29.89,SSW,194,5.0,9.0,83,0.00,,FEW,0.00,956.00,VWS V14.01,2013-02-26 17:48:00,
2013-02-26 12:50:00,81.6,75.9,29.89,South,190,7.0,9.0,83,0.00,,FEW,0.00,297.00,VWS V14.01,2013-02-26 17:50:00,
2013-02-26 12:51:00,81.5,75.5,29.89,SSW,208,4.0,9.0,82,0.00,,FEW,0.00,287.00,VWS V14.01,2013-02-26 17:51:00,
2013-02-26 12:53:00,81.2,75.6,29.89,SSW,200,7.0,8.0,83,0.00,,FEW,0.00,264.00,VWS V14.01,2013-02-26 17:53:00,
2013-02-26 12:55:00,81.0,75.3,29.89,South,170,5.0,10.0,83,0.00,,FEW,0.00,265.00,VWS V14.01,2013-02-26 17:55:00,
2013-02-26 12:56:00,80.9,75.3,29.89,South,191,5.0,10.0,83,0.00,,FEW,0.00,265.00,VWS V14.01,2013-02-26 17:56:00,
2013-02-26 12:58:00,80.7,75.4,29.89,SSW,207,7.0,10.0,84,0.00,,FEW,0.00,341.00,VWS V14.01,2013-02-26 17:58:00,
2013-02-26 13:00:00,80.6,75.3,29.89,South,180,6.0,10.0,84,0.00,,FEW,0.00,429.00,VWS V14.01,2013-02-26 18:00:00,
2013-02-26 13:01:00,80.6,75.3,29.88,South,175,10.0,10.0,84,0.00,,FEW,0.00,366.00,VWS V14.01,2013-02-26 18:01:00,
2013-02-26 13:03:00,80.5,75.2,29.88,South,175,10.0,10.0,84,0.00,,FEW,0.00,322.00,VWS V14.01,2013-02-26 18:03:00,
2013-02-26 13:05:00,80.4,75.1,29.88,SSW,198,7.0,10.0,84,0.00,,FEW,0.00,383.00,VWS V14.01,2013-02-26 18:05:00,
2013-02-26 13:06:00,80.4,75.1,29.88,South,188,10.0,10.0,84,0.00,,FEW,0.00,355.00,VWS V14.01,2013-02-26 18:06:00,
2013-02-26 13:08:00,80.5,75.2,29.88,SSW,200,7.0,11.0,84,0.00,,FEW,0.00,373.00,VWS V14.01,2013-02-26 18:08:00,
2013-02-26 13:10:00,80.5,75.2,29.88,South,191,8.0,12.0,84,0.00,,FEW,0.00,373.00,VWS V14.01,2013-02-26 18:10:00,
2013-02-26 13:11:00,80.5,75.2,29.88,South,184,4.0,12.0,84,0.00,,FEW,0.00,373.00,VWS V14.01,2013-02-26 18:11:00,
2013-02-26 13:13:00,80.8,75.9,29.88,South,187,5.0,11.0,85,0.00,,FEW,0.00,844.00,VWS V14.01,2013-02-26 18:13:00,
2013-02-26 13:15:00,81.0,75.7,29.88,SSW,200,7.0,11.0,84,0.00,,FEW,0.00,849.00,VWS V14.01,2013-02-26 18:15:00,
2013-02-26 13:16:00,81.1,75.8,29.88,SSW,194,6.0,11.0,84,0.00,,FEW,0.00,849.00,VWS V14.01,2013-02-26 18:16:00,
2013-02-26 13:18:00,81.2,75.9,29.88,South,172,7.0,11.0,84,0.00,,FEW,0.00,849.00,VWS V14.01,2013-02-26 18:18:00,
2013-02-26 13:20:00,81.3,76.0,29.88,SSE,156,5.0,11.0,84,0.00,,FEW,0.00,809.00,VWS V14.01,2013-02-26 18:20:00,
2013-02-26 13:21:00,81.4,76.1,29.88,East,92,3.0,11.0,84,0.00,,FEW,0.00,737.00,VWS V14.01,2013-02-26 18:21:00,
2013-02-26 13:24:00,81.6,75.9,29.88,SSW,211,5.0,11.0,83,0.00,,FEW,0.00,842.00,VWS V14.01,2013-02-26 18:24:00,
2013-02-26 13:25:00,81.8,76.1,29.88,SE,138,6.0,11.0,83,0.00,,FEW,0.00,828.00,VWS V14.01,2013-02-26 18:25:00,
2013-02-26 13:26:00,81.8,76.1,29.88,SW,232,6.0,11.0,83,0.00,,FEW,0.00,798.00,VWS V14.01,2013-02-26 18:26:00,
2013-02-26 13:27:00,81.9,76.2,29.88,South,174,4.0,11.0,83,0.00,,FEW,0.00,800.00,VWS V14.01,2013-02-26 18:27:00,
2013-02-26 13:29:00,82.0,76.3,29.88,SSW,198,7.0,11.0,83,0.00,,FEW,0.00,824.00,VWS V14.01,2013-02-26 18:29:00,
2013-02-26 13:30:00,82.0,76.0,29.88,South,180,3.0,11.0,82,0.00,,FEW,0.00,766.00,VWS V14.01,2013-02-26 18:30:00,
2013-02-26 13:32:00,81.9,76.2,29.87,South,182,3.0,6.0,83,0.00,,FEW,0.00,791.00,VWS V14.01,2013-02-26 18:32:00,
2013-02-26 13:34:00,81.8,75.8,29.87,SSW,201,4.0,8.0,82,0.00,,FEW,0.00,828.00,VWS V14.01,2013-02-26 18:34:00,
2013-02-26 13:35:00,81.8,76.1,29.87,SSW,199,7.0,9.0,83,0.00,,FEW,0.00,763.00,VWS V14.01,2013-02-26 18:35:00,
2013-02-26 13:37:00,81.8,76.1,29.87,SE,142,7.0,9.0,83,0.00,,FEW,0.00,737.00,VWS V14.01,2013-02-26 18:37:00,
2013-02-26 13:39:00,81.7,76.0,29.87,SSW,208,8.0,9.0,83,0.00,,FEW,0.00,752.00,VWS V14.01,2013-02-26 18:39:00,
2013-02-26 13:40:00,81.6,75.9,29.87,SSW,212,4.0,9.0,83,0.00,,FEW,0.00,726.00,VWS V14.01,2013-02-26 18:40:00,
2013-02-26 13:42:00,81.5,75.8,29.87,SSW,194,7.0,12.0,83,0.00,,FEW,0.00,733.00,VWS V14.01,2013-02-26 18:42:00,
2013-02-26 13:44:00,81.4,75.7,29.87,SSW,205,9.0,12.0,83,0.00,,FEW,0.00,763.00,VWS V14.01,2013-02-26 18:44:00,
2013-02-26 13:46:00,81.3,75.7,29.87,SSE,164,4.0,12.0,83,0.00,,FEW,0.00,714.00,VWS V14.01,2013-02-26 18:46:00,
2013-02-26 13:47:00,81.2,75.6,29.87,SW,218,7.0,12.0,83,0.00,,FEW,0.00,735.00,VWS V14.01,2013-02-26 18:47:00,
2013-02-26 13:49:00,81.2,75.6,29.87,SSW,194,7.0,12.0,83,0.00,,FEW,0.00,777.00,VWS V14.01,2013-02-26 18:49:00,
2013-02-26 13:51:00,81.3,76.0,29.87,SW,219,7.0,12.0,84,0.00,,FEW,0.00,775.00,VWS V14.01,2013-02-26 18:51:00,
2013-02-26 13:52:00,81.3,76.0,29.87,South,180,8.0,8.0,84,0.00,,FEW,0.00,828.00,VWS V14.01,2013-02-26 18:52:00,
2013-02-26 13:54:00,81.4,75.7,29.87,SSE,160,6.0,9.0,83,0.00,,FEW,0.00,772.00,VWS V14.01,2013-02-26 18:54:00,
2013-02-26 13:56:00,81.4,75.7,29.87,South,184,8.0,9.0,83,0.00,,FEW,0.00,670.00,VWS V14.01,2013-02-26 18:56:00,
2013-02-26 13:57:00,81.4,75.7,29.87,SSW,198,9.0,10.0,83,0.00,,FEW,0.00,670.00,VWS V14.01,2013-02-26 18:57:00,
2013-02-26 13:59:00,81.3,75.7,29.87,South,176,8.0,10.0,83,0.00,,FEW,0.00,657.00,VWS V14.01,2013-02-26 18:59:00,
2013-02-26 14:02:00,81.3,76.0,29.86,SSW,203,7.0,7.0,84,0.00,,FEW,0.00,795.00,VWS V14.01,2013-02-26 19:02:00,
2013-02-26 14:03:00,81.4,76.1,29.86,SSE,159,4.0,10.0,84,0.00,,FEW,0.00,788.00,VWS V14.01,2013-02-26 19:03:00,
2013-02-26 14:04:00,81.5,76.2,29.86,South,176,8.0,10.0,84,0.00,,FEW,0.00,782.00,VWS V14.01,2013-02-26 19:04:00,
2013-02-26 14:07:00,81.6,75.9,29.86,South,173,8.0,10.0,83,0.00,,FEW,0.00,779.00,VWS V14.01,2013-02-26 19:07:00,
2013-02-26 14:08:00,81.4,75.4,29.86,SSW,204,5.0,10.0,82,0.00,,FEW,0.00,766.00,VWS V14.01,2013-02-26 19:08:00,
2013-02-26 14:09:00,81.4,75.7,29.86,SSW,201,7.0,10.0,83,0.00,,FEW,0.00,742.00,VWS V14.01,2013-02-26 19:09:00,
2013-02-26 14:12:00,81.2,75.6,29.86,SSE,166,6.0,8.0,83,0.00,,FEW,0.00,671.00,VWS V14.01,2013-02-26 19:12:00,
2013-02-26 14:13:00,81.2,75.6,29.86,South,180,5.0,10.0,83,0.00,,FEW,0.00,707.00,VWS V14.01,2013-02-26 19:13:00,
2013-02-26 14:14:00,81.2,75.6,29.86,SSW,203,6.0,10.0,83,0.00,,FEW,0.00,707.00,VWS V14.01,2013-02-26 19:14:00,
2013-02-26 14:17:00,81.4,76.1,29.86,South,172,6.0,10.0,84,0.00,,FEW,0.00,737.00,VWS V14.01,2013-02-26 19:17:00,
2013-02-26 14:18:00,81.6,75.9,29.86,SSE,167,4.0,10.0,83,0.00,,FEW,0.00,708.00,VWS V14.01,2013-02-26 19:18:00,
2013-02-26 14:19:00,81.6,76.3,29.86,SW,219,5.0,10.0,84,0.00,,FEW,0.00,708.00,VWS V14.01,2013-02-26 19:19:00,
2013-02-26 14:22:00,82.0,76.3,29.86,South,185,5.0,7.0,83,0.00,,FEW,0.00,742.00,VWS V14.01,2013-02-26 19:22:00,
2013-02-26 14:23:00,82.1,76.4,29.86,SSW,209,2.0,7.0,83,0.00,,FEW,0.00,657.00,VWS V14.01,2013-02-26 19:23:00,
2013-02-26 14:24:00,82.1,76.4,29.86,South,190,4.0,7.0,83,0.00,,FEW,0.00,691.00,VWS V14.01,2013-02-26 19:24:00,
2013-02-26 14:27:00,82.4,76.4,29.86,SSW,201,5.0,7.0,82,0.00,,FEW,0.00,701.00,VWS V14.01,2013-02-26 19:27:00,
2013-02-26 14:29:00,82.4,76.4,29.86,SSW,200,3.0,7.0,82,0.00,,FEW,0.00,677.00,VWS V14.01,2013-02-26 19:29:00,
2013-02-26 14:32:00,82.6,76.6,29.85,South,187,4.0,6.0,82,0.00,,FEW,0.00,520.00,VWS V14.01,2013-02-26 19:32:00,
2013-02-26 14:34:00,82.5,76.4,29.85,South,190,7.0,7.0,82,0.00,,FEW,0.00,700.00,VWS V14.01,2013-02-26 19:34:00,
2013-02-26 14:37:00,82.6,76.6,29.85,SSW,195,2.0,8.0,82,0.00,,FEW,0.00,647.00,VWS V14.01,2013-02-26 19:37:00,
2013-02-26 14:39:00,82.7,76.7,29.85,South,181,5.0,8.0,82,0.00,,FEW,0.00,647.00,VWS V14.01,2013-02-26 19:39:00,
2013-02-26 14:42:00,82.8,76.8,29.85,SSE,155,3.0,7.0,82,0.00,,FEW,0.00,596.00,VWS V14.01,2013-02-26 19:42:00,
2013-02-26 14:43:00,82.8,76.8,29.85,SSW,194,3.0,7.0,82,0.00,,FEW,0.00,596.00,VWS V14.01,2013-02-26 19:43:00,
2013-02-26 14:44:00,82.8,76.8,29.85,SSE,167,2.0,7.0,82,0.00,,FEW,0.00,596.00,VWS V14.01,2013-02-26 19:44:00,
2013-02-26 14:47:00,82.7,76.7,29.84,ESE,109,3.0,7.0,82,0.00,,FEW,0.00,427.00,VWS V14.01,2013-02-26 19:47:00,
2013-02-26 14:48:00,82.7,76.7,29.84,SW,215,4.0,7.0,82,0.00,,FEW,0.00,427.00,VWS V14.01,2013-02-26 19:48:00,
2013-02-26 14:49:00,82.6,76.6,29.84,South,190,4.0,7.0,82,0.00,,FEW,0.00,381.00,VWS V14.01,2013-02-26 19:49:00,
2013-02-26 14:52:00,82.5,76.4,29.84,ESE,109,5.0,6.0,82,0.00,,FEW,0.00,568.00,VWS V14.01,2013-02-26 19:52:00,
2013-02-26 14:53:00,82.5,76.4,29.84,ESE,120,3.0,6.0,82,0.00,,FEW,0.00,568.00,VWS V14.01,2013-02-26 19:53:00,
2013-02-26 14:54:00,82.5,76.4,29.84,SW,214,2.0,6.0,82,0.00,,FEW,0.00,396.00,VWS V14.01,2013-02-26 19:54:00,
2013-02-26 14:57:00,82.4,76.4,29.84,SE,136,3.0,8.0,82,0.00,,FEW,0.00,355.00,VWS V14.01,2013-02-26 19:57:00,
2013-02-26 14:58:00,82.4,76.4,29.84,SSE,158,2.0,8.0,82,0.00,,FEW,0.00,374.00,VWS V14.01,2013-02-26 19:58:00,
2013-02-26 14:59:00,82.4,76.4,29.84,SSW,194,5.0,8.0,82,0.00,,FEW,0.00,374.00,VWS V14.01,2013-02-26 19:59:00,
2013-02-26 15:02:00,82.2,76.2,29.83,SSE,157,3.0,6.0,82,0.00,,FEW,0.00,598.00,VWS V14.01,2013-02-26 20:02:00,
2013-02-26 15:03:00,82.3,76.3,29.83,SSE,165,5.0,6.0,82,0.00,,FEW,0.00,598.00,VWS V14.01,2013-02-26 20:03:00,
2013-02-26 15:04:00,82.3,76.3,29.83,South,186,5.0,8.0,82,0.00,,FEW,0.00,415.00,VWS V14.01,2013-02-26 20:04:00,
2013-02-26 15:05:00,82.3,76.3,29.83,SSE,157,3.0,8.0,82,0.00,,FEW,0.00,415.00,VWS V14.01,2013-02-26 20:05:00,
2013-02-26 15:08:00,82.3,76.3,29.83,SE,145,2.0,8.0,82,0.00,,FEW,0.00,429.00,VWS V14.01,2013-02-26 20:08:00,
2013-02-26 15:09:00,82.3,76.3,29.83,South,170,6.0,8.0,82,0.00,,FEW,0.00,545.00,VWS V14.01,2013-02-26 20:09:00,
2013-02-26 15:10:00,82.4,76.4,29.83,SE,144,3.0,8.0,82,0.00,,FEW,0.00,582.00,VWS V14.01,2013-02-26 20:10:00,
2013-02-26 15:13:00,82.5,76.4,29.83,South,174,4.0,7.0,82,0.00,,FEW,0.00,499.00,VWS V14.01,2013-02-26 20:13:00,
2013-02-26 15:14:00,82.5,76.1,29.83,SSE,166,5.0,8.0,81,0.00,,FEW,0.00,582.00,VWS V14.01,2013-02-26 20:14:00,
2013-02-26 15:15:00,82.5,76.1,29.83,SSW,211,3.0,8.0,81,0.00,,FEW,0.00,605.00,VWS V14.01,2013-02-26 20:15:00,
2013-02-26 15:18:00,82.7,76.7,29.83,SSE,159,5.0,8.0,82,0.00,,FEW,0.00,492.00,VWS V14.01,2013-02-26 20:18:00,
2013-02-26 15:19:00,82.5,76.4,29.83,South,177,3.0,8.0,82,0.00,,FEW,0.00,499.00,VWS V14.01,2013-02-26 20:19:00,
2013-02-26 15:20:00,82.5,76.4,29.83,SSE,165,5.0,8.0,82,0.00,,FEW,0.00,524.00,VWS V14.01,2013-02-26 20:20:00,
2013-02-26 15:23:00,82.4,76.4,29.83,South,173,3.0,7.0,82,0.00,,FEW,0.00,371.00,VWS V14.01,2013-02-26 20:23:00,
2013-02-26 15:25:00,82.3,76.3,29.83,SSW,200,4.0,7.0,82,0.00,,FEW,0.00,325.00,VWS V14.01,2013-02-26 20:25:00,
2013-02-26 15:28:00,82.0,76.0,29.83,SSW,201,4.0,9.0,82,0.00,,FEW,0.00,420.00,VWS V14.01,2013-02-26 20:28:00,
2013-02-26 15:30:00,81.9,76.2,29.83,SSE,163,4.0,9.0,83,0.00,,FEW,0.00,387.00,VWS V14.01,2013-02-26 20:30:00,
2013-02-26 15:33:00,82.0,76.3,29.83,SSW,196,4.0,4.0,83,0.00,,FEW,0.00,638.00,VWS V14.01,2013-02-26 20:33:00,
2013-02-26 15:35:00,82.1,76.4,29.83,South,185,1.0,4.0,83,0.00,,FEW,0.00,615.00,VWS V14.01,2013-02-26 20:35:00,
2013-02-26 15:38:00,82.6,76.9,29.83,SW,230,2.0,4.0,83,0.00,,FEW,0.00,543.00,VWS V14.01,2013-02-26 20:38:00,
2013-02-26 15:40:00,82.7,76.7,29.83,South,178,3.0,7.0,82,0.00,,FEW,0.00,411.00,VWS V14.01,2013-02-26 20:40:00,
2013-02-26 15:43:00,82.6,76.6,29.83,SE,134,1.0,5.0,82,0.00,,FEW,0.00,397.00,VWS V14.01,2013-02-26 20:43:00,
2013-02-26 15:45:00,82.4,76.4,29.83,South,175,2.0,7.0,82,0.00,,FEW,0.00,515.00,VWS V14.01,2013-02-26 20:45:00,
2013-02-26 15:46:00,82.4,76.4,29.83,South,180,5.0,7.0,82,0.00,,FEW,0.00,475.00,VWS V14.01,2013-02-26 20:46:00,
2013-02-26 15:48:00,82.2,76.2,29.83,SSE,166,2.0,7.0,82,0.00,,FEW,0.00,490.00,VWS V14.01,2013-02-26 20:48:00,
2013-02-26 15:50:00,82.1,76.4,29.83,SSW,200,4.0,7.0,83,0.00,,FEW,0.00,487.00,VWS V14.01,2013-02-26 20:50:00,
2013-02-26 15:51:00,82.1,76.4,29.83,SSE,163,4.0,7.0,83,0.00,,FEW,0.00,487.00,VWS V14.01,2013-02-26 20:51:00,
2013-02-26 15:53:00,82.0,76.3,29.83,South,188,2.0,6.0,83,0.00,,FEW,0.00,397.00,VWS V14.01,2013-02-26 20:53:00,
2013-02-26 15:55:00,82.0,76.3,29.83,WSW,244,4.0,6.0,83,0.00,,FEW,0.00,443.00,VWS V14.01,2013-02-26 20:55:00,
2013-02-26 15:56:00,81.9,76.2,29.83,SE,125,5.0,6.0,83,0.00,,FEW,0.00,427.00,VWS V14.01,2013-02-26 20:56:00,
2013-02-26 15:58:00,82.0,76.3,29.83,SSE,160,2.0,7.0,83,0.00,,FEW,0.00,478.00,VWS V14.01,2013-02-26 20:58:00,
2013-02-26 16:01:00,82.1,76.1,29.83,WSW,241,2.0,7.0,82,0.00,,FEW,0.00,468.00,VWS V14.01,2013-02-26 21:01:00,
2013-02-26 16:03:00,82.2,76.2,29.83,SSE,147,4.0,6.0,82,0.00,,FEW,0.00,373.00,VWS V14.01,2013-02-26 21:03:00,
2013-02-26 16:06:00,82.2,76.2,29.83,SSW,195,2.0,6.0,82,0.00,,FEW,0.00,429.00,VWS V14.01,2013-02-26 21:06:00,
2013-02-26 16:08:00,82.1,76.1,29.83,SSE,148,2.0,7.0,82,0.00,,FEW,0.00,374.00,VWS V14.01,2013-02-26 21:08:00,
2013-02-26 16:09:00,82.1,76.1,29.83,South,180,5.0,7.0,82,0.00,,FEW,0.00,332.00,VWS V14.01,2013-02-26 21:09:00,
2013-02-26 16:11:00,82.2,76.2,29.83,South,172,4.0,7.0,82,0.00,,FEW,0.00,350.00,VWS V14.01,2013-02-26 21:11:00,
2013-02-26 16:12:00,82.2,76.2,29.83,SE,144,2.0,5.0,82,0.00,,FEW,0.00,323.00,VWS V14.01,2013-02-26 21:12:00,
2013-02-26 16:14:00,82.2,76.5,29.83,SSE,167,6.0,6.0,83,0.00,,FEW,0.00,292.00,VWS V14.01,2013-02-26 21:14:00,
2013-02-26 16:16:00,82.2,76.2,29.83,SSE,153,1.0,6.0,82,0.00,,FEW,0.00,336.00,VWS V14.01,2013-02-26 21:16:00,
2013-02-26 16:17:00,82.2,76.2,29.83,SSE,163,2.0,6.0,82,0.00,,FEW,0.00,357.00,VWS V14.01,2013-02-26 21:17:00,
2013-02-26 16:19:00,82.2,76.2,29.83,SSE,164,4.0,6.0,82,0.00,,FEW,0.00,357.00,VWS V14.01,2013-02-26 21:19:00,
2013-02-26 16:21:00,82.1,76.1,29.83,SE,128,4.0,7.0,82,0.00,,FEW,0.00,320.00,VWS V14.01,2013-02-26 21:21:00,
2013-02-26 16:22:00,82.1,76.1,29.83,South,171,3.0,3.0,82,0.00,,FEW,0.00,299.00,VWS V14.01,2013-02-26 21:22:00,
2013-02-26 16:24:00,82.0,76.0,29.83,South,174,2.0,6.0,82,0.00,,FEW,0.00,418.00,VWS V14.01,2013-02-26 21:24:00,
2013-02-26 16:26:00,82.0,76.3,29.83,ESE,117,4.0,6.0,83,0.00,,FEW,0.00,406.00,VWS V14.01,2013-02-26 21:26:00,
2013-02-26 16:27:00,82.0,76.3,29.83,SSE,148,4.0,6.0,83,0.00,,FEW,0.00,397.00,VWS V14.01,2013-02-26 21:27:00,
2013-02-26 16:29:00,82.0,76.3,29.83,SE,146,4.0,6.0,83,0.00,,FEW,0.00,396.00,VWS V14.01,2013-02-26 21:29:00,
2013-02-26 16:31:00,82.1,76.4,29.83,SSW,207,2.0,6.0,83,0.00,,FEW,0.00,350.00,VWS V14.01,2013-02-26 21:31:00,
2013-02-26 16:32:00,82.1,76.4,29.83,SSE,155,3.0,4.0,83,0.00,,FEW,0.00,373.00,VWS V14.01,2013-02-26 21:32:00,
2013-02-26 16:34:00,82.1,76.4,29.83,SSE,153,4.0,5.0,83,0.00,,FEW,0.00,338.00,VWS V14.01,2013-02-26 21:34:00,
2013-02-26 16:36:00,82.1,76.4,29.83,SSE,156,2.0,5.0,83,0.00,,FEW,0.00,350.00,VWS V14.01,2013-02-26 21:36:00,
2013-02-26 16:37:00,82.1,76.1,29.83,South,171,3.0,5.0,82,0.00,,FEW,0.00,359.00,VWS V14.01,2013-02-26 21:37:00,
2013-02-26 16:39:00,82.0,76.0,29.83,SSW,196,1.0,5.0,82,0.00,,FEW,0.00,353.00,VWS V14.01,2013-02-26 21:39:00,
2013-02-26 16:41:00,81.9,76.2,29.83,SSE,148,2.0,7.0,83,0.00,,FEW,0.00,359.00,VWS V14.01,2013-02-26 21:41:00,
2013-02-26 16:42:00,81.9,76.2,29.83,SSE,154,3.0,5.0,83,0.00,,FEW,0.00,353.00,VWS V14.01,2013-02-26 21:42:00,
2013-02-26 16:44:00,82.0,76.0,29.83,SSW,201,4.0,6.0,82,0.00,,FEW,0.00,343.00,VWS V14.01,2013-02-26 21:44:00,
2013-02-26 16:46:00,82.0,76.0,29.84,ENE,71,1.0,6.0,82,0.00,,FEW,0.00,336.00,VWS V14.01,2013-02-26 21:46:00,
2013-02-26 16:47:00,82.0,76.0,29.84,South,187,1.0,6.0,82,0.00,,FEW,0.00,329.00,VWS V14.01,2013-02-26 21:47:00,
2013-02-26 16:49:00,82.0,76.0,29.84,SSW,198,5.0,6.0,82,0.00,,FEW,0.00,320.00,VWS V14.01,2013-02-26 21:49:00,
2013-02-26 16:51:00,81.9,75.9,29.84,South,188,4.0,6.0,82,0.00,,FEW,0.00,311.00,VWS V14.01,2013-02-26 21:51:00,
2013-02-26 16:53:00,81.7,75.7,29.84,SSW,196,4.0,7.0,82,0.00,,FEW,0.00,302.00,VWS V14.01,2013-02-26 21:53:00,
2013-02-26 16:54:00,81.6,75.9,29.84,SSW,213,3.0,7.0,83,0.00,,FEW,0.00,297.00,VWS V14.01,2013-02-26 21:54:00,
2013-02-26 16:56:00,81.5,75.8,29.84,SSW,197,3.0,7.0,83,0.00,,FEW,0.00,288.00,VWS V14.01,2013-02-26 21:56:00,
2013-02-26 16:58:00,81.4,75.7,29.84,South,190,2.0,7.0,83,0.00,,FEW,0.00,279.00,VWS V14.01,2013-02-26 21:58:00,
2013-02-26 16:59:00,81.4,75.7,29.84,South,188,4.0,7.0,83,0.00,,FEW,0.00,269.00,VWS V14.01,2013-02-26 21:59:00,
2013-02-26 17:00:00,81.3,75.7,29.84,South,179,3.0,7.0,83,0.00,,FEW,0.00,269.00,VWS V14.01,2013-02-26 22:00:00,
2013-02-26 17:01:00,81.3,75.7,29.85,SSW,200,3.0,7.0,83,0.00,,FEW,0.00,260.00,VWS V14.01,2013-02-26 22:01:00,
2013-02-26 17:03:00,81.3,76.0,29.85,SSW,200,3.0,4.0,84,0.00,,FEW,0.00,257.00,VWS V14.01,2013-02-26 22:03:00,
2013-02-26 17:05:00,81.3,76.0,29.85,SSW,201,4.0,4.0,84,0.00,,FEW,0.00,248.00,VWS V14.01,2013-02-26 22:05:00,
2013-02-26 17:06:00,81.2,75.6,29.85,South,169,4.0,5.0,83,0.00,,FEW,0.00,237.00,VWS V14.01,2013-02-26 22:06:00,
2013-02-26 17:08:00,81.2,75.9,29.85,South,188,3.0,5.0,84,0.00,,FEW,0.00,229.00,VWS V14.01,2013-02-26 22:08:00,
2013-02-26 17:10:00,81.2,75.9,29.85,South,171,3.0,5.0,84,0.00,,FEW,0.00,223.00,VWS V14.01,2013-02-26 22:10:00,
2013-02-26 17:11:00,81.1,75.8,29.85,South,182,2.0,5.0,84,0.00,,FEW,0.00,214.00,VWS V14.01,2013-02-26 22:11:00,
2013-02-26 17:13:00,81.1,75.4,29.85,SSW,193,3.0,6.0,83,0.00,,FEW,0.00,206.00,VWS V14.01,2013-02-26 22:13:00,
2013-02-26 17:15:00,81.1,75.8,29.85,SSW,195,2.0,6.0,84,0.00,,FEW,0.00,197.00,VWS V14.01,2013-02-26 22:15:00,
2013-02-26 17:17:00,81.1,75.8,29.84,SSE,157,2.0,6.0,84,0.00,,FEW,0.00,190.00,VWS V14.01,2013-02-26 22:17:00,
2013-02-26 17:18:00,81.0,75.7,29.84,South,182,1.0,6.0,84,0.00,,FEW,0.00,186.00,VWS V14.01,2013-02-26 22:18:00,
2013-02-26 17:20:00,81.1,75.8,29.84,South,181,2.0,6.0,84,0.00,,FEW,0.00,179.00,VWS V14.01,2013-02-26 22:20:00,
2013-02-26 17:22:00,81.1,75.8,29.84,SSE,161,4.0,4.0,84,0.00,,FEW,0.00,171.00,VWS V14.01,2013-02-26 22:22:00,
2013-02-26 17:24:00,81.0,75.7,29.84,SSW,202,4.0,5.0,84,0.00,,FEW,0.00,163.00,VWS V14.01,2013-02-26 22:24:00,
2013-02-26 17:25:00,80.9,75.6,29.84,SSW,193,3.0,5.0,84,0.00,,FEW,0.00,160.00,VWS V14.01,2013-02-26 22:25:00,
2013-02-26 17:27:00,80.8,75.5,29.84,SSW,193,3.0,5.0,84,0.00,,FEW,0.00,155.00,VWS V14.01,2013-02-26 22:27:00,
2013-02-26 17:29:00,80.8,75.5,29.84,SSE,165,2.0,5.0,84,0.00,,FEW,0.00,146.00,VWS V14.01,2013-02-26 22:29:00,
2013-02-26 17:30:00,80.8,75.5,29.84,South,178,1.0,5.0,84,0.00,,FEW,0.00,142.00,VWS V14.01,2013-02-26 22:30:00,
2013-02-26 17:32:00,80.8,75.9,29.85,SSW,196,2.0,2.0,85,0.00,,FEW,0.00,137.00,VWS V14.01,2013-02-26 22:32:00,
2013-02-26 17:34:00,80.9,76.0,29.85,SSE,162,2.0,3.0,85,0.00,,FEW,0.00,98.00,VWS V14.01,2013-02-26 22:34:00,
2013-02-26 17:35:00,80.9,76.0,29.85,SSE,163,4.0,4.0,85,0.00,,FEW,0.00,105.00,VWS V14.01,2013-02-26 22:35:00,
2013-02-26 17:37:00,80.9,76.0,29.85,SSE,168,0.0,4.0,85,0.00,,FEW,0.00,116.00,VWS V14.01,2013-02-26 22:37:00,
2013-02-26 17:39:00,80.9,76.0,29.85,South,173,3.0,5.0,85,0.00,,FEW,0.00,104.00,VWS V14.01,2013-02-26 22:39:00,
2013-02-26 17:40:00,80.9,76.0,29.85,SSE,155,2.0,5.0,85,0.00,,FEW,0.00,105.00,VWS V14.01,2013-02-26 22:40:00,
2013-02-26 17:42:00,80.9,76.0,29.85,South,173,1.0,2.0,85,0.00,,FEW,0.00,98.00,VWS V14.01,2013-02-26 22:42:00,
2013-02-26 17:44:00,80.8,75.9,29.85,East,101,2.0,6.0,85,0.00,,FEW,0.00,91.00,VWS V14.01,2013-02-26 22:44:00,
2013-02-26 17:45:00,80.8,75.9,29.85,SSW,193,4.0,6.0,85,0.00,,FEW,0.00,86.00,VWS V14.01,2013-02-26 22:45:00,
2013-02-26 17:47:00,80.8,75.9,29.85,ESE,105,3.0,6.0,85,0.00,,FEW,0.00,72.00,VWS V14.01,2013-02-26 22:47:00,
2013-02-26 17:49:00,80.7,75.8,29.85,SSE,164,2.0,6.0,85,0.00,,FEW,0.00,65.00,VWS V14.01,2013-02-26 22:49:00,
2013-02-26 17:50:00,80.7,75.8,29.85,SSE,150,4.0,6.0,85,0.00,,FEW,0.00,63.00,VWS V14.01,2013-02-26 22:50:00,
2013-02-26 17:52:00,80.7,75.8,29.85,SE,136,2.0,5.0,85,0.00,,FEW,0.00,58.00,VWS V14.01,2013-02-26 22:52:00,
2013-02-26 17:54:00,80.6,75.7,29.85,South,171,2.0,5.0,85,0.00,,FEW,0.00,33.00,VWS V14.01,2013-02-26 22:54:00,
2013-02-26 17:55:00,80.5,75.9,29.85,SSE,166,3.0,5.0,86,0.00,,FEW,0.00,39.00,VWS V14.01,2013-02-26 22:55:00,
2013-02-26 17:56:00,80.5,75.9,29.85,South,178,4.0,5.0,86,0.00,,FEW,0.00,39.00,VWS V14.01,2013-02-26 22:56:00,
2013-02-26 17:57:00,80.5,75.9,29.85,SSE,160,3.0,5.0,86,0.00,,FEW,0.00,30.00,VWS V14.01,2013-02-26 22:57:00,
2013-02-26 17:59:00,80.4,75.8,29.85,SE,137,2.0,5.0,86,0.00,,FEW,0.00,21.00,VWS V14.01,2013-02-26 22:59:00,
2013-02-26 18:00:00,80.3,75.7,29.85,ESE,117,3.0,5.0,86,0.00,,FEW,0.00,21.00,VWS V14.01,2013-02-26 23:00:00,
2013-02-26 18:01:00,80.3,75.7,29.85,ESE,111,4.0,5.0,86,0.00,,FEW,0.00,18.00,VWS V14.01,2013-02-26 23:01:00,
2013-02-26 18:02:00,80.2,75.6,29.85,SSE,158,4.0,5.0,86,0.00,,FEW,0.00,16.00,VWS V14.01,2013-02-26 23:02:00,
2013-02-26 18:04:00,80.1,75.5,29.85,South,178,4.0,6.0,86,0.00,,FEW,0.00,14.00,VWS V14.01,2013-02-26 23:04:00,
2013-02-26 18:05:00,80.0,75.4,29.85,SSE,156,3.0,6.0,86,0.00,,FEW,0.00,12.00,VWS V14.01,2013-02-26 23:05:00,
2013-02-26 18:06:00,79.9,75.3,29.85,SSE,154,2.0,6.0,86,0.00,,FEW,0.00,12.00,VWS V14.01,2013-02-26 23:06:00,
2013-02-26 18:07:00,79.9,75.7,29.85,SSE,154,1.0,6.0,87,0.00,,FEW,0.00,12.00,VWS V14.01,2013-02-26 23:07:00,
2013-02-26 18:09:00,79.8,75.6,29.85,SSE,163,0.0,6.0,87,0.00,,FEW,0.00,11.00,VWS V14.01,2013-02-26 23:09:00,
2013-02-26 18:10:00,79.7,75.5,29.85,SSE,153,2.0,6.0,87,0.00,,FEW,0.00,9.00,VWS V14.01,2013-02-26 23:10:00,
2013-02-26 18:11:00,79.7,75.5,29.85,SSW,208,2.0,6.0,87,0.00,,FEW,0.00,9.00,VWS V14.01,2013-02-26 23:11:00,
2013-02-26 18:12:00,79.7,75.5,29.85,SSE,153,5.0,5.0,87,0.00,,FEW,0.00,9.00,VWS V14.01,2013-02-26 23:12:00,
2013-02-26 18:14:00,79.6,75.4,29.85,SE,136,4.0,5.0,87,0.00,,FEW,0.00,9.00,VWS V14.01,2013-02-26 23:14:00,
2013-02-26 18:15:00,79.5,75.3,29.85,SSE,148,3.0,5.0,87,0.00,,FEW,0.00,9.00,VWS V14.01,2013-02-26 23:15:00,
2013-02-26 18:16:00,79.4,75.2,29.85,SE,146,2.0,5.0,87,0.00,,FEW,0.00,7.00,VWS V14.01,2013-02-26 23:16:00,
2013-02-26 18:17:00,79.4,75.2,29.85,SSE,155,3.0,5.0,87,0.00,,FEW,0.00,7.00,VWS V14.01,2013-02-26 23:17:00,
2013-02-26 18:19:00,79.3,75.1,29.85,SSE,149,3.0,7.0,87,0.00,,FEW,0.00,5.00,VWS V14.01,2013-02-26 23:19:00,
2013-02-26 18:21:00,79.3,75.1,29.85,SE,145,2.0,7.0,87,0.00,,FEW,0.00,5.00,VWS V14.01,2013-02-26 23:21:00,
2013-02-26 18:22:00,79.2,75.0,29.85,SE,138,2.0,2.0,87,0.00,,FEW,0.00,5.00,VWS V14.01,2013-02-26 23:22:00,
2013-02-26 18:24:00,79.2,75.3,29.85,SE,128,3.0,4.0,88,0.00,,FEW,0.00,0.00,VWS V14.01,2013-02-26 23:24:00,
2013-02-26 18:26:00,79.2,75.3,29.85,South,173,2.0,4.0,88,0.00,,FEW,0.00,0.00,VWS V14.01,2013-02-26 23:26:00,
2013-02-26 18:27:00,79.2,75.3,29.85,SSE,151,2.0,4.0,88,0.00,,FEW,0.00,0.00,VWS V14.01,2013-02-26 23:27:00,
2013-02-26 18:29:00,79.1,75.2,29.85,SE,140,4.0,4.0,88,0.00,,FEW,0.00,0.00,VWS V14.01,2013-02-26 23:29:00,
2013-02-26 18:31:00,79.1,75.2,29.86,SSE,168,3.0,6.0,88,0.00,,FEW,0.00,0.00,VWS V14.01,2013-02-26 23:31:00,
2013-02-26 18:32:00,79.1,75.2,29.86,South,175,1.0,4.0,88,0.00,,FEW,0.00,0.00,VWS V14.01,2013-02-26 23:32:00,
2013-02-26 18:35:00,79.0,75.2,29.86,SE,136,1.0,4.0,88,0.00,,FEW,0.00,0.00,VWS V14.01,2013-02-26 23:35:00,
2013-02-26 18:36:00,79.0,75.2,29.86,SE,136,2.0,4.0,88,0.00,,FEW,0.00,0.00,VWS V14.01,2013-02-26 23:36:00,
2013-02-26 18:37:00,79.0,75.2,29.86,SSE,168,1.0,4.0,88,0.00,,FEW,0.00,0.00,VWS V14.01,2013-02-26 23:37:00,
2013-02-26 18:40:00,78.9,75.1,29.86,SSE,164,2.0,4.0,88,0.00,,FEW,0.00,0.00,VWS V14.01,2013-02-26 23:40:00,
2013-02-26 18:41:00,78.9,75.1,29.86,South,178,5.0,5.0,88,0.00,,FEW,0.00,0.00,VWS V14.01,2013-02-26 23:41:00,
2013-02-26 18:42:00,78.9,75.1,29.86,SSE,147,1.0,2.0,88,0.00,,FEW,0.00,0.00,VWS V14.01,2013-02-26 23:42:00,
2013-02-26 18:45:00,78.8,74.9,29.86,South,169,2.0,3.0,88,0.00,,FEW,0.00,0.00,VWS V14.01,2013-02-26 23:45:00,
2013-02-26 18:46:00,78.8,75.3,29.86,ESE,119,2.0,4.0,89,0.00,,FEW,0.00,0.00,VWS V14.01,2013-02-26 23:46:00,
2013-02-26 18:47:00,78.8,75.3,29.86,SE,138,3.0,4.0,89,0.00,,FEW,0.00,0.00,VWS V14.01,2013-02-26 23:47:00,
2013-02-26 18:50:00,78.7,75.2,29.86,SSE,159,1.0,4.0,89,0.00,,FEW,0.00,0.00,VWS V14.01,2013-02-26 23:50:00,
2013-02-26 18:51:00,78.7,75.2,29.86,SSE,163,1.0,4.0,89,0.00,,FEW,0.00,0.00,VWS V14.01,2013-02-26 23:51:00,
2013-02-26 18:52:00,78.7,75.2,29.86,SSE,150,2.0,4.0,89,0.00,,FEW,0.00,0.00,VWS V14.01,2013-02-26 23:52:00,
2013-02-26 18:55:00,78.7,75.2,29.86,SSE,148,3.0,5.0,89,0.00,,FEW,0.00,0.00,VWS V14.01,2013-02-26 23:55:00,
2013-02-26 18:56:00,78.7,75.2,29.86,SSE,154,3.0,5.0,89,0.00,,FEW,0.00,0.00,VWS V14.01,2013-02-26 23:56:00,
2013-02-26 18:57:00,78.7,75.2,29.86,SE,141,4.0,5.0,89,0.00,,FEW,0.00,0.00,VWS V14.01,2013-02-26 23:57:00,
2013-02-26 19:00:00,78.7,75.2,29.86,SE,140,2.0,5.0,89,0.00,,FEW,0.00,0.00,VWS V14.01,2013-02-27 00:00:00,
2013-02-26 19:01:00,78.8,75.6,29.86,SE,146,3.0,4.0,90,0.00,,FEW,0.00,0.00,VWS V14.01,2013-02-27 00:01:00,
2013-02-26 19:02:00,78.7,75.5,29.86,SE,134,4.0,4.0,90,0.00,,FEW,0.00,0.00,VWS V14.01,2013-02-27 00:02:00,
2013-02-26 19:03:00,78.7,75.5,29.86,SSE,157,2.0,4.0,90,0.00,,FEW,0.00,0.00,VWS V14.01,2013-02-27 00:03:00,
2013-02-26 19:05:00,78.7,75.5,29.86,SSE,150,2.0,5.0,90,0.00,,FEW,0.00,0.00,VWS V14.01,2013-02-27 00:05:00,
2013-02-26 19:06:00,78.7,75.5,29.86,SSE,154,4.0,5.0,90,0.00,,FEW,0.00,0.00,VWS V14.01,2013-02-27 00:06:00,
2013-02-26 19:07:00,78.7,75.5,29.86,SE,134,3.0,6.0,90,0.00,,FEW,0.00,0.00,VWS V14.01,2013-02-27 00:07:00,
2013-02-26 19:08:00,78.7,75.5,29.86,SSE,158,4.0,6.0,90,0.00,,FEW,0.00,0.00,VWS V14.01,2013-02-27 00:08:00,
2013-02-26 19:10:00,78.7,75.5,29.86,SE,136,3.0,6.0,90,0.00,,FEW,0.00,0.00,VWS V14.01,2013-02-27 00:10:00,
2013-02-26 19:12:00,78.7,75.5,29.86,SSE,157,5.0,5.0,90,0.00,,FEW,0.00,0.00,VWS V14.01,2013-02-27 00:12:00,
2013-02-26 19:13:00,78.7,75.5,29.86,SE,140,3.0,5.0,90,0.00,,FEW,0.00,0.00,VWS V14.01,2013-02-27 00:13:00,
2013-02-26 19:15:00,78.6,75.4,29.86,SE,136,4.0,5.0,90,0.00,,FEW,0.00,0.00,VWS V14.01,2013-02-27 00:15:00,
2013-02-26 19:17:00,78.5,75.3,29.86,SE,140,4.0,5.0,90,0.00,,FEW,0.00,0.00,VWS V14.01,2013-02-27 00:17:00,
2013-02-26 19:18:00,78.5,75.3,29.86,SSE,147,2.0,5.0,90,0.00,,FEW,0.00,0.00,VWS V14.01,2013-02-27 00:18:00,
2013-02-26 19:20:00,78.5,75.7,29.86,SE,136,3.0,5.0,91,0.00,,FEW,0.00,0.00,VWS V14.01,2013-02-27 00:20:00,
2013-02-26 19:22:00,78.5,75.7,29.86,SE,144,4.0,4.0,91,0.00,,FEW,0.00,0.00,VWS V14.01,2013-02-27 00:22:00,
2013-02-26 19:23:00,78.5,75.7,29.86,SSE,151,2.0,4.0,91,0.00,,FEW,0.00,0.00,VWS V14.01,2013-02-27 00:23:00,
2013-02-26 19:24:00,78.5,75.7,29.86,SSE,149,1.0,4.0,91,0.00,,FEW,0.00,0.00,VWS V14.01,2013-02-27 00:24:00,
2013-02-26 19:25:00,78.5,75.7,29.86,SSE,167,3.0,5.0,91,0.00,,FEW,0.00,0.00,VWS V14.01,2013-02-27 00:25:00,
2013-02-26 19:27:00,78.5,75.7,29.86,SSE,155,3.0,6.0,91,0.00,,FEW,0.00,0.00,VWS V14.01,2013-02-27 00:27:00,
2013-02-26 19:28:00,78.5,75.7,29.86,SE,138,5.0,6.0,91,0.00,,FEW,0.00,0.00,VWS V14.01,2013-02-27 00:28:00,
2013-02-26 19:29:00,78.5,75.7,29.86,SE,126,3.0,6.0,91,0.00,,FEW,0.00,0.00,VWS V14.01,2013-02-27 00:29:00,
2013-02-26 19:30:00,78.4,75.6,29.87,SSE,153,3.0,6.0,91,0.00,,FEW,0.00,0.00,VWS V14.01,2013-02-27 00:30:00,
2013-02-26 19:32:00,78.4,75.6,29.87,SE,142,4.0,4.0,91,0.00,,FEW,0.00,0.00,VWS V14.01,2013-02-27 00:32:00,
2013-02-26 19:33:00,78.4,75.6,29.87,SE,138,4.0,4.0,91,0.00,,FEW,0.00,0.00,VWS V14.01,2013-02-27 00:33:00,
2013-02-26 19:34:00,78.4,75.6,29.87,ESE,122,5.0,5.0,91,0.00,,FEW,0.00,0.00,VWS V14.01,2013-02-27 00:34:00,
2013-02-26 19:36:00,78.4,75.6,29.87,SE,144,3.0,5.0,91,0.00,,FEW,0.00,0.00,VWS V14.01,2013-02-27 00:36:00,
2013-02-26 19:37:00,78.4,75.6,29.87,South,169,4.0,5.0,91,0.00,,FEW,0.00,0.00,VWS V14.01,2013-02-27 00:37:00,
2013-02-26 19:38:00,78.4,75.6,29.87,SE,133,5.0,5.0,91,0.00,,FEW,0.00,0.00,VWS V14.01,2013-02-27 00:38:00,
2013-02-26 19:39:00,78.4,75.6,29.87,SE,142,2.0,6.0,91,0.00,,FEW,0.00,0.00,VWS V14.01,2013-02-27 00:39:00,
2013-02-26 19:41:00,78.4,75.6,29.87,SSE,167,5.0,6.0,91,0.00,,FEW,0.00,0.00,VWS V14.01,2013-02-27 00:41:00,
2013-02-26 19:42:00,78.4,75.6,29.87,South,182,3.0,4.0,91,0.00,,FEW,0.00,0.00,VWS V14.01,2013-02-27 00:42:00,
2013-02-26 19:43:00,78.3,75.5,29.87,SE,133,3.0,4.0,91,0.00,,FEW,0.00,0.00,VWS V14.01,2013-02-27 00:43:00,
2013-02-26 19:45:00,78.3,75.5,29.87,SSE,157,4.0,5.0,91,0.00,,FEW,0.00,0.00,VWS V14.01,2013-02-27 00:45:00,
2013-02-26 19:46:00,78.3,75.5,29.88,South,180,4.0,5.0,91,0.00,,FEW,0.00,0.00,VWS V14.01,2013-02-27 00:46:00,
2013-02-26 19:47:00,78.3,75.5,29.88,SE,141,5.0,7.0,91,0.00,,FEW,0.00,0.00,VWS V14.01,2013-02-27 00:47:00,
2013-02-26 19:48:00,78.3,75.5,29.88,SE,138,5.0,7.0,91,0.00,,FEW,0.00,0.00,VWS V14.01,2013-02-27 00:48:00,
2013-02-26 19:50:00,78.3,75.5,29.88,SE,139,4.0,7.0,91,0.00,,FEW,0.00,0.00,VWS V14.01,2013-02-27 00:50:00,
2013-02-26 19:51:00,78.3,75.8,29.88,ESE,121,3.0,7.0,92,0.00,,FEW,0.00,0.00,VWS V14.01,2013-02-27 00:51:00,
2013-02-26 19:52:00,78.3,75.8,29.88,SSE,148,6.0,6.0,92,0.00,,FEW,0.00,0.00,VWS V14.01,2013-02-27 00:52:00,
2013-02-26 19:53:00,78.3,75.8,29.88,SE,139,4.0,6.0,92,0.00,,FEW,0.00,0.00,VWS V14.01,2013-02-27 00:53:00,
2013-02-26 19:55:00,78.3,75.8,29.88,SE,142,5.0,6.0,92,0.00,,FEW,0.00,0.00,VWS V14.01,2013-02-27 00:55:00,
2013-02-26 19:56:00,78.3,75.8,29.88,SSE,155,3.0,6.0,92,0.00,,FEW,0.00,0.00,VWS V14.01,2013-02-27 00:56:00,
2013-02-26 19:57:00,78.3,75.8,29.88,SSE,154,3.0,6.0,92,0.00,,FEW,0.00,0.00,VWS V14.01,2013-02-27 00:57:00,
2013-02-26 19:58:00,78.3,75.8,29.88,SSE,155,4.0,6.0,92,0.00,,FEW,0.00,0.00,VWS V14.01,2013-02-27 00:58:00,
2013-02-26 20:00:00,78.3,75.8,29.88,SE,143,4.0,6.0,92,0.00,,FEW,0.00,0.00,VWS V14.01,2013-02-27 01:00:00,
2013-02-26 20:01:00,78.3,75.8,29.88,SE,144,5.0,6.0,92,0.00,,FEW,0.00,0.00,VWS V14.01,2013-02-27 01:01:00,
2013-02-26 20:02:00,78.4,75.9,29.88,ESE,122,3.0,4.0,92,0.00,,FEW,0.00,0.00,VWS V14.01,2013-02-27 01:02:00,
2013-02-26 20:03:00,78.4,75.9,29.88,SE,128,3.0,5.0,92,0.00,,FEW,0.00,0.00,VWS V14.01,2013-02-27 01:03:00,
2013-02-26 20:05:00,78.4,75.9,29.88,SE,132,2.0,5.0,92,0.00,,FEW,0.00,0.00,VWS V14.01,2013-02-27 01:05:00,
2013-02-26 20:06:00,78.4,75.9,29.88,SSE,151,3.0,5.0,92,0.00,,FEW,0.00,0.00,VWS V14.01,2013-02-27 01:06:00,
2013-02-26 20:07:00,78.4,75.9,29.88,SSE,152,2.0,5.0,92,0.00,,FEW,0.00,0.00,VWS V14.01,2013-02-27 01:07:00,
2013-02-26 20:08:00,78.4,75.9,29.88,South,182,2.0,5.0,92,0.00,,FEW,0.00,0.00,VWS V14.01,2013-02-27 01:08:00,
2013-02-26 20:10:00,78.4,75.9,29.88,SE,146,4.0,5.0,92,0.00,,FEW,0.00,0.00,VWS V14.01,2013-02-27 01:10:00,
2013-02-26 20:11:00,78.5,76.0,29.88,SE,127,3.0,6.0,92,0.00,,FEW,0.00,0.00,VWS V14.01,2013-02-27 01:11:00,
2013-02-26 20:12:00,78.5,76.0,29.88,South,178,3.0,4.0,92,0.00,,FEW,0.00,0.00,VWS V14.01,2013-02-27 01:12:00,
2013-02-26 20:13:00,78.5,76.0,29.88,SSE,160,4.0,4.0,92,0.00,,FEW,0.00,0.00,VWS V14.01,2013-02-27 01:13:00,
2013-02-26 20:15:00,78.5,76.0,29.88,SE,131,2.0,6.0,92,0.00,,FEW,0.00,0.00,VWS V14.01,2013-02-27 01:15:00,
2013-02-26 20:16:00,78.5,76.0,29.89,SSE,160,2.0,6.0,92,0.00,,FEW,0.00,0.00,VWS V14.01,2013-02-27 01:16:00,
2013-02-26 20:18:00,78.5,76.0,29.89,SSE,153,2.0,6.0,92,0.00,,FEW,0.00,0.00,VWS V14.01,2013-02-27 01:18:00,
2013-02-26 20:20:00,78.5,76.0,29.89,South,186,4.0,7.0,92,0.00,,FEW,0.00,0.00,VWS V14.01,2013-02-27 01:20:00,
2013-02-26 20:21:00,78.5,76.0,29.89,SE,146,3.0,7.0,92,0.00,,FEW,0.00,0.00,VWS V14.01,2013-02-27 01:21:00,
2013-02-26 20:23:00,78.5,76.0,29.89,SE,146,3.0,6.0,92,0.00,,FEW,0.00,0.00,VWS V14.01,2013-02-27 01:23:00,
2013-02-26 20:26:00,78.5,76.0,29.89,SE,133,3.0,6.0,92,0.00,,FEW,0.00,0.00,VWS V14.01,2013-02-27 01:26:00,
2013-02-26 20:27:00,78.5,76.0,29.89,SE,126,6.0,6.0,92,0.00,,FEW,0.00,0.00,VWS V14.01,2013-02-27 01:27:00,
2013-02-26 20:28:00,78.5,76.0,29.89,SE,128,2.0,6.0,92,0.00,,FEW,0.00,0.00,VWS V14.01,2013-02-27 01:28:00,
2013-02-26 20:31:00,78.4,75.9,29.90,SE,132,4.0,6.0,92,0.00,,FEW,0.00,0.00,VWS V14.01,2013-02-27 01:31:00,
2013-02-26 20:32:00,78.4,75.9,29.90,South,184,5.0,5.0,92,0.00,,FEW,0.00,0.00,VWS V14.01,2013-02-27 01:32:00,
2013-02-26 20:33:00,78.4,75.9,29.90,SE,144,3.0,5.0,92,0.00,,FEW,0.00,0.00,VWS V14.01,2013-02-27 01:33:00,
2013-02-26 20:36:00,78.4,75.9,29.90,South,172,3.0,5.0,92,0.00,,FEW,0.00,0.00,VWS V14.01,2013-02-27 01:36:00,
2013-02-26 20:37:00,78.4,75.9,29.90,SSE,149,1.0,7.0,92,0.00,,FEW,0.00,0.00,VWS V14.01,2013-02-27 01:37:00,
2013-02-26 20:38:00,78.4,75.9,29.90,SSE,167,2.0,7.0,92,0.00,,FEW,0.00,0.00,VWS V14.01,2013-02-27 01:38:00,
2013-02-26 20:41:00,78.4,75.9,29.90,SSE,153,4.0,7.0,92,0.00,,FEW,0.00,0.00,VWS V14.01,2013-02-27 01:41:00,
2013-02-26 20:42:00,78.4,75.9,29.90,SSE,167,4.0,4.0,92,0.00,,FEW,0.00,0.00,VWS V14.01,2013-02-27 01:42:00,
2013-02-26 20:43:00,78.4,75.9,29.90,SSE,164,5.0,5.0,92,0.00,,FEW,0.00,0.00,VWS V14.01,2013-02-27 01:43:00,
2013-02-26 20:46:00,78.4,75.9,29.90,SSW,209,1.0,6.0,92,0.00,,FEW,0.00,0.00,VWS V14.01,2013-02-27 01:46:00,
2013-02-26 20:47:00,78.4,75.9,29.90,SSE,156,1.0,6.0,92,0.00,,FEW,0.00,0.00,VWS V14.01,2013-02-27 01:47:00,
2013-02-26 20:48:00,78.4,75.9,29.90,South,180,2.0,6.0,92,0.00,,FEW,0.00,0.00,VWS V14.01,2013-02-27 01:48:00,
2013-02-26 20:51:00,78.4,75.9,29.90,SE,135,0.0,6.0,92,0.00,,FEW,0.00,0.00,VWS V14.01,2013-02-27 01:51:00,
2013-02-26 20:52:00,78.4,75.9,29.90,SSE,162,4.0,4.0,92,0.00,,FEW,0.00,0.00,VWS V14.01,2013-02-27 01:52:00,
2013-02-26 20:53:00,78.5,76.0,29.90,SSW,193,5.0,5.0,92,0.00,,FEW,0.00,0.00,VWS V14.01,2013-02-27 01:53:00,
2013-02-26 20:54:00,78.4,75.9,29.90,SSW,193,3.0,6.0,92,0.00,,FEW,0.00,0.00,VWS V14.01,2013-02-27 01:54:00,
2013-02-26 20:56:00,78.4,75.9,29.90,South,181,4.0,6.0,92,0.00,,FEW,0.00,0.00,VWS V14.01,2013-02-27 01:56:00,
2013-02-26 20:58:00,78.4,75.9,29.90,SE,143,3.0,6.0,92,0.00,,FEW,0.00,0.00,VWS V14.01,2013-02-27 01:58:00,
2013-02-26 21:01:00,78.4,75.9,29.90,SSE,161,2.0,6.0,92,0.00,,FEW,0.00,0.00,VWS V14.01,2013-02-27 02:01:00,
2013-02-26 21:03:00,78.4,75.9,29.90,SSE,150,6.0,6.0,92,0.00,,FEW,0.00,0.00,VWS V14.01,2013-02-27 02:03:00,
2013-02-26 21:04:00,78.4,75.9,29.90,SE,127,2.0,6.0,92,0.00,,FEW,0.00,0.00,VWS V14.01,2013-02-27 02:04:00,
2013-02-26 21:06:00,78.4,75.9,29.90,South,169,1.0,6.0,92,0.00,,FEW,0.00,0.00,VWS V14.01,2013-02-27 02:06:00,
2013-02-26 21:08:00,78.4,75.9,29.90,SE,141,4.0,7.0,92,0.00,,FEW,0.00,0.00,VWS V14.01,2013-02-27 02:08:00,
2013-02-26 21:09:00,78.4,75.9,29.90,SSE,147,2.0,7.0,92,0.00,,FEW,0.00,0.00,VWS V14.01,2013-02-27 02:09:00,
2013-02-26 21:11:00,78.4,76.2,29.90,SE,144,3.0,7.0,93,0.00,,FEW,0.00,0.00,VWS V14.01,2013-02-27 02:11:00,
2013-02-26 21:13:00,78.3,76.1,29.90,SE,137,1.0,5.0,93,0.00,,FEW,0.00,0.00,VWS V14.01,2013-02-27 02:13:00,
2013-02-26 21:14:00,78.4,76.2,29.90,South,180,5.0,5.0,93,0.00,,FEW,0.00,0.00,VWS V14.01,2013-02-27 02:14:00,
2013-02-26 21:17:00,78.4,76.2,29.90,SE,143,3.0,5.0,93,0.00,,FEW,0.00,0.00,VWS V14.01,2013-02-27 02:17:00,
2013-02-26 21:19:00,78.3,76.1,29.90,SE,138,2.0,5.0,93,0.00,,FEW,0.00,0.00,VWS V14.01,2013-02-27 02:19:00,
2013-02-26 21:20:00,78.4,76.2,29.90,SSE,151,3.0,5.0,93,0.00,,FEW,0.00,0.00,VWS V14.01,2013-02-27 02:20:00,
2013-02-26 21:22:00,78.4,76.2,29.90,SSE,147,3.0,3.0,93,0.00,,FEW,0.00,0.00,VWS V14.01,2013-02-27 02:22:00,
2013-02-26 21:24:00,78.4,76.2,29.90,SSE,158,2.0,4.0,93,0.00,,FEW,0.00,0.00,VWS V14.01,2013-02-27 02:24:00,
2013-02-26 21:25:00,78.4,76.2,29.90,SE,144,0.0,5.0,93,0.00,,FEW,0.00,0.00,VWS V14.01,2013-02-27 02:25:00,
2013-02-26 21:27:00,78.4,76.2,29.90,SW,222,3.0,5.0,93,0.00,,FEW,0.00,0.00,VWS V14.01,2013-02-27 02:27:00,
2013-02-26 21:29:00,78.4,76.2,29.90,SE,134,5.0,6.0,93,0.00,,FEW,0.00,0.00,VWS V14.01,2013-02-27 02:29:00,
2013-02-26 21:31:00,78.4,76.2,29.90,ESE,120,4.0,6.0,93,0.00,,FEW,0.00,0.00,VWS V14.01,2013-02-27 02:31:00,
2013-02-26 21:32:00,78.3,76.1,29.90,SSE,165,1.0,3.0,93,0.00,,FEW,0.00,0.00,VWS V14.01,2013-02-27 02:32:00,
2013-02-26 21:34:00,78.3,76.1,29.90,South,172,2.0,6.0,93,0.00,,FEW,0.00,0.00,VWS V14.01,2013-02-27 02:34:00,
2013-02-26 21:36:00,78.3,76.1,29.90,SSE,161,4.0,6.0,93,0.00,,FEW,0.00,0.00,VWS V14.01,2013-02-27 02:36:00,
2013-02-26 21:37:00,78.3,76.1,29.90,SSE,165,2.0,6.0,93,0.00,,FEW,0.00,0.00,VWS V14.01,2013-02-27 02:37:00,
2013-02-26 21:39:00,78.2,76.0,29.90,SSE,166,2.0,6.0,93,0.00,,FEW,0.00,0.00,VWS V14.01,2013-02-27 02:39:00,
2013-02-26 21:40:00,78.2,76.0,29.90,SSE,166,1.0,6.0,93,0.00,,FEW,0.00,0.00,VWS V14.01,2013-02-27 02:40:00,
2013-02-26 21:41:00,78.2,76.0,29.90,SSE,165,1.0,6.0,93,0.00,,FEW,0.00,0.00,VWS V14.01,2013-02-27 02:41:00,
2013-02-26 21:42:00,78.2,76.0,29.90,SSE,163,2.0,4.0,93,0.00,,FEW,0.00,0.00,VWS V14.01,2013-02-27 02:42:00,
2013-02-26 21:45:00,78.2,76.0,29.90,South,191,1.0,6.0,93,0.00,,FEW,0.00,0.00,VWS V14.01,2013-02-27 02:45:00,
2013-02-26 21:46:00,78.2,76.0,29.91,SSW,202,2.0,6.0,93,0.00,,FEW,0.00,0.00,VWS V14.01,2013-02-27 02:46:00,
2013-02-26 21:47:00,78.2,76.0,29.91,South,177,3.0,6.0,93,0.00,,FEW,0.00,0.00,VWS V14.01,2013-02-27 02:47:00,
2013-02-26 21:50:00,78.2,75.7,29.91,South,179,5.0,6.0,92,0.00,,FEW,0.00,0.00,VWS V14.01,2013-02-27 02:50:00,
2013-02-26 21:51:00,78.2,75.7,29.91,South,180,4.0,7.0,92,0.00,,FEW,0.00,0.00,VWS V14.01,2013-02-27 02:51:00,
2013-02-26 21:52:00,78.1,75.6,29.91,SSW,208,3.0,5.0,92,0.00,,FEW,0.00,0.00,VWS V14.01,2013-02-27 02:52:00,
2013-02-26 21:55:00,78.2,75.7,29.91,SSW,198,7.0,7.0,92,0.00,,FEW,0.00,0.00,VWS V14.01,2013-02-27 02:55:00,
2013-02-26 21:56:00,78.2,75.7,29.91,SSE,166,6.0,7.0,92,0.00,,FEW,0.00,0.00,VWS V14.01,2013-02-27 02:56:00,
2013-02-26 21:57:00,78.2,75.7,29.91,SSW,202,6.0,7.0,92,0.00,,FEW,0.00,0.00,VWS V14.01,2013-02-27 02:57:00,
2013-02-26 22:00:00,78.3,75.8,29.91,South,175,6.0,7.0,92,0.00,,FEW,0.00,0.00,VWS V14.01,2013-02-27 03:00:00,
2013-02-26 22:01:00,78.3,75.8,29.91,SSE,165,3.0,7.0,92,0.00,,FEW,0.00,0.00,VWS V14.01,2013-02-27 03:01:00,
2013-02-26 22:03:00,78.3,75.8,29.91,South,180,6.0,6.0,92,0.00,,FEW,0.00,0.00,VWS V14.01,2013-02-27 03:03:00,
2013-02-26 22:05:00,78.3,75.8,29.91,South,190,3.0,6.0,92,0.00,,FEW,0.00,0.00,VWS V14.01,2013-02-27 03:05:00,
2013-02-26 22:06:00,78.3,75.8,29.91,South,191,5.0,6.0,92,0.00,,FEW,0.00,0.00,VWS V14.01,2013-02-27 03:06:00,
2013-02-26 22:08:00,78.3,75.8,29.91,SSW,194,4.0,7.0,92,0.00,,FEW,0.00,0.00,VWS V14.01,2013-02-27 03:08:00,
2013-02-26 22:10:00,78.3,75.8,29.91,SSW,204,6.0,7.0,92,0.00,,FEW,0.00,0.00,VWS V14.01,2013-02-27 03:10:00,
2013-02-26 22:11:00,78.3,75.8,29.91,South,181,7.0,7.0,92,0.00,,FEW,0.00,0.00,VWS V14.01,2013-02-27 03:11:00,
2013-02-26 22:13:00,78.3,75.8,29.91,SSW,198,5.0,7.0,92,0.00,,FEW,0.00,0.00,VWS V14.01,2013-02-27 03:13:00,
2013-02-26 22:15:00,78.4,75.9,29.91,SSW,200,3.0,8.0,92,0.00,,FEW,0.00,0.00,VWS V14.01,2013-02-27 03:15:00,
2013-02-26 22:16:00,78.4,75.9,29.91,SSW,197,2.0,8.0,92,0.00,,FEW,0.00,0.00,VWS V14.01,2013-02-27 03:16:00,
2013-02-26 22:18:00,78.4,75.9,29.91,SSW,198,4.0,8.0,92,0.00,,FEW,0.00,0.00,VWS V14.01,2013-02-27 03:18:00,
2013-02-26 22:20:00,78.4,75.9,29.91,South,183,3.0,8.0,92,0.00,,FEW,0.00,0.00,VWS V14.01,2013-02-27 03:20:00,
2013-02-26 22:21:00,78.4,75.9,29.91,South,184,5.0,8.0,92,0.00,,FEW,0.00,0.00,VWS V14.01,2013-02-27 03:21:00,
2013-02-26 22:23:00,78.5,76.0,29.91,SSW,200,4.0,5.0,92,0.00,,FEW,0.00,0.00,VWS V14.01,2013-02-27 03:23:00,
2013-02-26 22:25:00,78.5,76.0,29.91,SSE,155,3.0,6.0,92,0.00,,FEW,0.00,0.00,VWS V14.01,2013-02-27 03:25:00,
2013-02-26 22:26:00,78.5,76.0,29.91,SSE,166,4.0,6.0,92,0.00,,FEW,0.00,0.00,VWS V14.01,2013-02-27 03:26:00,
2013-02-26 22:27:00,78.5,76.0,29.91,SSW,192,7.0,7.0,92,0.00,,FEW,0.00,0.00,VWS V14.01,2013-02-27 03:27:00,
2013-02-26 22:28:00,78.5,76.0,29.91,SW,219,6.0,7.0,92,0.00,,FEW,0.00,0.00,VWS V14.01,2013-02-27 03:28:00,
2013-02-26 22:30:00,78.6,76.1,29.91,South,173,5.0,7.0,92,0.00,,FEW,0.00,0.00,VWS V14.01,2013-02-27 03:30:00,
2013-02-26 22:31:00,78.6,76.1,29.91,SSW,194,5.0,7.0,92,0.00,,FEW,0.00,0.00,VWS V14.01,2013-02-27 03:31:00,
2013-02-26 22:32:00,78.6,76.1,29.91,SW,232,5.0,5.0,92,0.00,,FEW,0.00,0.00,VWS V14.01,2013-02-27 03:32:00,
2013-02-26 22:33:00,78.6,76.1,29.91,South,184,4.0,6.0,92,0.00,,FEW,0.00,0.00,VWS V14.01,2013-02-27 03:33:00,
2013-02-26 22:35:00,78.7,75.9,29.91,SSW,200,7.0,8.0,91,0.00,,FEW,0.00,0.00,VWS V14.01,2013-02-27 03:35:00,
2013-02-26 22:36:00,78.7,75.9,29.91,South,178,6.0,8.0,91,0.00,,FEW,0.00,0.00,VWS V14.01,2013-02-27 03:36:00,
2013-02-26 22:37:00,78.7,75.9,29.91,SSW,204,5.0,8.0,91,0.00,,FEW,0.00,0.00,VWS V14.01,2013-02-27 03:37:00,
2013-02-26 22:38:00,78.7,76.2,29.91,South,180,5.0,8.0,92,0.00,,FEW,0.00,0.00,VWS V14.01,2013-02-27 03:38:00,
2013-02-26 22:40:00,78.7,76.2,29.91,SSW,207,5.0,8.0,92,0.00,,FEW,0.00,0.00,VWS V14.01,2013-02-27 03:40:00,
2013-02-26 22:41:00,78.7,76.2,29.91,SSW,207,6.0,8.0,92,0.00,,FEW,0.00,0.00,VWS V14.01,2013-02-27 03:41:00,
2013-02-26 22:42:00,78.8,76.3,29.91,SW,219,6.0,6.0,92,0.00,,FEW,0.00,0.00,VWS V14.01,2013-02-27 03:42:00,
2013-02-26 22:43:00,78.8,76.3,29.91,SSW,203,6.0,8.0,92,0.00,,FEW,0.00,0.00,VWS V14.01,2013-02-27 03:43:00,
2013-02-26 22:45:00,78.8,76.3,29.91,SE,146,5.0,8.0,92,0.00,,FEW,0.00,0.00,VWS V14.01,2013-02-27 03:45:00,
2013-02-26 22:46:00,78.8,76.3,29.91,SSW,206,5.0,8.0,92,0.00,,FEW,0.00,0.00,VWS V14.01,2013-02-27 03:46:00,
2013-02-26 22:47:00,78.8,76.3,29.91,SSW,194,5.0,8.0,92,0.00,,FEW,0.00,0.00,VWS V14.01,2013-02-27 03:47:00,
2013-02-26 22:48:00,78.9,76.4,29.91,SSW,204,5.0,8.0,92,0.00,,FEW,0.00,0.00,VWS V14.01,2013-02-27 03:48:00,
2013-02-26 22:51:00,78.9,76.4,29.91,SSW,198,8.0,10.0,92,0.00,,FEW,0.00,0.00,VWS V14.01,2013-02-27 03:51:00,
2013-02-26 22:52:00,78.8,76.3,29.91,SW,219,8.0,8.0,92,0.00,,FEW,0.00,0.00,VWS V14.01,2013-02-27 03:52:00,
2013-02-26 22:53:00,78.8,76.3,29.91,SSE,155,6.0,9.0,92,0.00,,FEW,0.00,0.00,VWS V14.01,2013-02-27 03:53:00,
2013-02-26 22:56:00,78.8,76.3,29.91,SSW,209,5.0,9.0,92,0.00,,FEW,0.00,0.00,VWS V14.01,2013-02-27 03:56:00,
2013-02-26 22:57:00,78.8,76.3,29.91,SW,222,8.0,10.0,92,0.00,,FEW,0.00,0.00,VWS V14.01,2013-02-27 03:57:00,
2013-02-26 22:58:00,78.9,76.4,29.91,SSE,167,4.0,10.0,92,0.00,,FEW,0.00,0.00,VWS V14.01,2013-02-27 03:58:00,
2013-02-26 23:01:00,78.9,76.4,29.90,SSW,194,6.0,10.0,92,0.00,,FEW,0.00,0.00,VWS V14.01,2013-02-27 04:01:00,
2013-02-26 23:02:00,78.9,76.4,29.90,SSW,213,6.0,7.0,92,0.00,,FEW,0.00,0.00,VWS V14.01,2013-02-27 04:02:00,
2013-02-26 23:03:00,78.9,76.4,29.90,SW,218,8.0,8.0,92,0.00,,FEW,0.00,0.00,VWS V14.01,2013-02-27 04:03:00,
2013-02-26 23:06:00,78.9,76.4,29.90,SW,224,8.0,9.0,92,0.00,,FEW,0.00,0.00,VWS V14.01,2013-02-27 04:06:00,
2013-02-26 23:07:00,78.9,76.4,29.90,SW,222,8.0,10.0,92,0.00,,FEW,0.00,0.00,VWS V14.01,2013-02-27 04:07:00,
2013-02-26 23:08:00,78.9,76.4,29.90,SW,215,7.0,10.0,92,0.00,,FEW,0.00,0.00,VWS V14.01,2013-02-27 04:08:00,
2013-02-26 23:11:00,78.8,75.9,29.90,SSW,203,4.0,12.0,91,0.00,,FEW,0.00,0.00,VWS V14.01,2013-02-27 04:11:00,
2013-02-26 23:12:00,78.8,75.9,29.90,SSW,210,6.0,7.0,91,0.00,,FEW,0.00,0.00,VWS V14.01,2013-02-27 04:12:00,
2013-02-26 23:13:00,78.8,76.3,29.90,SW,216,7.0,7.0,92,0.00,,FEW,0.00,0.00,VWS V14.01,2013-02-27 04:13:00,
2013-02-26 23:16:00,78.9,76.1,29.91,SW,226,4.0,9.0,91,0.00,,FEW,0.00,0.00,VWS V14.01,2013-02-27 04:16:00,
2013-02-26 23:17:00,78.9,76.1,29.91,WSW,246,7.0,9.0,91,0.00,,FEW,0.00,0.00,VWS V14.01,2013-02-27 04:17:00,
2013-02-26 23:19:00,78.8,75.9,29.91,SW,221,7.0,11.0,91,0.00,,FEW,0.00,0.00,VWS V14.01,2013-02-27 04:19:00,
2013-02-26 23:21:00,78.9,76.1,29.91,SSW,204,6.0,11.0,91,0.00,,FEW,0.00,0.00,VWS V14.01,2013-02-27 04:21:00,
2013-02-26 23:22:00,78.9,76.1,29.91,SW,234,8.0,12.0,91,0.00,,FEW,0.00,0.00,VWS V14.01,2013-02-27 04:22:00,
2013-02-26 23:24:00,78.8,75.9,29.91,SSW,198,6.0,12.0,91,0.00,,FEW,0.00,0.00,VWS V14.01,2013-02-27 04:24:00,
2013-02-26 23:26:00,78.8,75.9,29.91,SW,219,4.0,12.0,91,0.00,,FEW,0.00,0.00,VWS V14.01,2013-02-27 04:26:00,
2013-02-26 23:27:00,78.9,76.1,29.91,SSW,196,5.0,12.0,91,0.00,,FEW,0.00,0.00,VWS V14.01,2013-02-27 04:27:00,
2013-02-26 23:29:00,78.9,76.1,29.91,South,190,6.0,12.0,91,0.00,,FEW,0.00,0.00,VWS V14.01,2013-02-27 04:29:00,
2013-02-26 23:31:00,78.9,76.1,29.90,SW,222,6.0,12.0,91,0.00,,FEW,0.00,0.00,VWS V14.01,2013-02-27 04:31:00,
2013-02-26 23:32:00,78.9,76.1,29.90,SW,219,7.0,9.0,91,0.00,,FEW,0.00,0.00,VWS V14.01,2013-02-27 04:32:00,
2013-02-26 23:34:00,78.9,76.1,29.90,SSW,196,4.0,9.0,91,0.00,,FEW,0.00,0.00,VWS V14.01,2013-02-27 04:34:00,
2013-02-26 23:36:00,78.9,76.1,29.90,SSW,213,6.0,9.0,91,0.00,,FEW,0.00,0.00,VWS V14.01,2013-02-27 04:36:00,
2013-02-26 23:37:00,78.9,75.7,29.90,SW,215,5.0,10.0,90,0.00,,FEW,0.00,0.00,VWS V14.01,2013-02-27 04:37:00,
2013-02-26 23:38:00,78.9,75.7,29.90,SW,227,6.0,10.0,90,0.00,,FEW,0.00,0.00,VWS V14.01,2013-02-27 04:38:00,
2013-02-26 23:39:00,78.9,75.7,29.90,SSW,197,4.0,10.0,90,0.00,,FEW,0.00,0.00,VWS V14.01,2013-02-27 04:39:00,
2013-02-26 23:41:00,78.9,75.7,29.90,SW,227,4.0,10.0,90,0.00,,FEW,0.00,0.00,VWS V14.01,2013-02-27 04:41:00,
2013-02-26 23:42:00,78.9,75.7,29.90,SW,219,5.0,5.0,90,0.00,,FEW,0.00,0.00,VWS V14.01,2013-02-27 04:42:00,
2013-02-26 23:43:00,79.0,75.8,29.90,SSW,200,5.0,8.0,90,0.00,,FEW,0.00,0.00,VWS V14.01,2013-02-27 04:43:00,
2013-02-26 23:44:00,79.0,75.8,29.90,SSW,193,5.0,9.0,90,0.00,,FEW,0.00,0.00,VWS V14.01,2013-02-27 04:44:00,
2013-02-26 23:46:00,79.1,75.9,29.90,SSW,195,9.0,9.0,90,0.00,,FEW,0.00,0.00,VWS V14.01,2013-02-27 04:46:00,
2013-02-26 23:47:00,79.1,75.9,29.90,South,188,5.0,9.0,90,0.00,,FEW,0.00,0.00,VWS V14.01,2013-02-27 04:47:00,
2013-02-26 23:48:00,79.0,75.8,29.90,SW,221,5.0,9.0,90,0.00,,FEW,0.00,0.00,VWS V14.01,2013-02-27 04:48:00,
2013-02-26 23:49:00,79.1,75.9,29.90,SSW,205,6.0,9.0,90,0.00,,FEW,0.00,0.00,VWS V14.01,2013-02-27 04:49:00,
2013-02-26 23:51:00,79.1,75.9,29.90,WSW,239,4.0,9.0,90,0.00,,FEW,0.00,0.00,VWS V14.01,2013-02-27 04:51:00,
2013-02-26 23:52:00,79.1,75.9,29.90,South,182,8.0,8.0,90,0.00,,FEW,0.00,0.00,VWS V14.01,2013-02-27 04:52:00,
2013-02-26 23:53:00,79.1,75.9,29.90,WSW,238,5.0,8.0,90,0.00,,FEW,0.00,0.00,VWS V14.01,2013-02-27 04:53:00,
2013-02-26 23:54:00,79.1,75.9,29.90,SSW,202,3.0,8.0,90,0.00,,FEW,0.00,0.00,VWS V14.01,2013-02-27 04:54:00,
2013-02-26 23:56:00,79.1,75.9,29.90,SSW,204,6.0,8.0,90,0.00,,FEW,0.00,0.00,VWS V14.01,2013-02-27 04:56:00,
2013-02-26 23:57:00,79.1,75.9,29.90,SSW,207,7.0,8.0,90,0.00,,FEW,0.00,0.00,VWS V14.01,2013-02-27 04:57:00,
2013-02-26 23:58:00,79.1,75.9,29.90,SW,221,4.0,8.0,90,0.00,,FEW,0.00,0.00,VWS V14.01,2013-02-27 04:58:00,
2013-02-26 23:59:00,79.1,75.9,29.90,SSE,163,4.0,8.0,90,0.00,,FEW,0.00,0.00,VWS V14.01,2013-02-27 04:59:00,